M I D A S
Marine Information and Data Acquisition System
Tripno 2024 of the Zeeleeuw from 2010-11-10 07:51:26 to 2010-11-10 16:08:12
Back to CruiseResearch ActivitiesStationsMapUnderway DataData graphs

EquipmentUnitsComment
TimeDGPSUTC
LatitudeDGPSDM.mWGS84
LongitudeDGPSDM.mWGS84
TemperatureSBE03/SBE38deg celciusITS90
ConductivitySBE21S/mITS90
SalinitySBE21 Practical Salinity Units
ChlorophylAChelsea fluorimeterg/lCalibrated in Aceton
Missing or incorrect values are displayed as -999
Sea surface data collected by the RV Zeeleeuw from 2010-11-10 07:48:18 to 2010-11-10 16:16:22
                                                                                    Next 1000 lines
Time Latitude Longitude Temperature Conductivity Salinity ChlorophylA
2010-11-10 07:48:28 51°13.662 2°55.954 17.8926 0.030316 0.17488 -0.443383
2010-11-10 07:48:32 51°13.662 2°55.952 17.901 0.030316 0.17488 -0.408559
2010-11-10 07:48:37 51°13.664 2°55.947 17.9104 0.030316 0.174877 -0.443383
2010-11-10 07:48:43 51°13.665 2°55.94 17.8837 0.030316 0.174883 -0.408559
2010-11-10 07:48:48 51°13.667 2°55.934 17.896 0.030316 0.174883 -0.408559
2010-11-10 07:48:55 51°13.669 2°55.923 17.9269 0.030316 0.174877 -0.408559
2010-11-10 07:49:00 51°13.671 2°55.915 17.921 0.030316 0.174877 -0.408559
2010-11-10 07:49:06 51°13.672 2°55.905 17.9219 0.030316 0.174874 -0.408559
2010-11-10 07:49:11 51°13.674 2°55.897 17.9421 0.030316 0.174877 -0.408559
2010-11-10 07:49:16 51°13.675 2°55.888 17.9339 0.030316 0.174874 -0.408559
2010-11-10 07:49:21 51°13.677 2°55.88 17.9357 0.030316 0.174874 -0.408559
2010-11-10 07:49:26 51°13.679 2°55.871 17.9443 0.030316 0.174874 -0.443383
2010-11-10 07:49:31 51°13.68 2°55.862 17.9444 0.030316 0.174874 -0.408559
2010-11-10 07:49:36 51°13.682 2°55.853 17.9428 0.030316 0.174877 -0.408559
2010-11-10 07:49:41 51°13.684 2°55.844 17.9368 0.030316 0.174883 -0.443383
2010-11-10 07:49:46 51°13.685 2°55.836 17.9367 0.030316 0.17488 -0.443383
2010-11-10 07:49:51 51°13.687 2°55.827 17.9242 0.030316 0.17488 -0.443383
2010-11-10 07:49:56 51°13.689 2°55.818 17.9218 0.030316 0.174883 -0.443383
2010-11-10 07:50:01 51°13.691 2°55.81 17.9479 0.030316 0.174883 -0.443383
2010-11-10 07:50:06 51°13.693 2°55.801 17.9211 0.030316 0.174883 -0.443383
2010-11-10 07:50:11 51°13.696 2°55.793 17.9248 0.030316 0.174883 -0.443383
2010-11-10 07:50:16 51°13.698 2°55.784 17.9474 0.030316 0.17488 -0.408559
2010-11-10 07:50:21 51°13.7 2°55.776 17.9493 0.030316 0.17488 -0.408559
2010-11-10 07:50:26 51°13.702 2°55.769 17.9584 0.030316 0.174883 -0.443383
2010-11-10 07:50:31 51°13.703 2°55.764 17.9779 0.030316 0.174883 -0.443383
2010-11-10 07:50:36 51°13.704 2°55.761 17.9977 0.030316 0.17488 -0.443383
2010-11-10 07:50:41 51°13.704 2°55.761 17.9573 0.030316 0.174877 -0.443383
2010-11-10 07:50:46 51°13.703 2°55.761 17.7914 0.030316 0.174868 -0.408559
2010-11-10 07:50:51 51°13.702 2°55.76 17.8246 0.030316 0.174868 -0.408559
2010-11-10 07:50:56 51°13.703 2°55.759 17.8009 0.030316 0.174865 -0.443383
2010-11-10 07:51:01 51°13.704 2°55.757 17.7605 0.030316 0.174874 -0.408559
2010-11-10 07:51:06 51°13.705 2°55.753 17.8137 0.030316 0.174883 -0.408559
2010-11-10 07:51:11 51°13.708 2°55.749 17.8695 0.030316 0.174892 -0.443383
2010-11-10 07:51:16 51°13.711 2°55.744 17.8642 0.030316 0.174901 -0.408559
2010-11-10 07:51:21 51°13.714 2°55.738 17.8438 0.030316 0.174901 -0.408559
2010-11-10 07:51:26 51°13.718 2°55.732 17.8521 0.030316 0.174904 -0.408559
2010-11-10 07:51:31 51°13.723 2°55.726 17.8767 0.030316 0.174901 -0.408559
2010-11-10 07:51:36 51°13.728 2°55.719 17.8816 0.030316 0.174892 -0.408559
2010-11-10 07:51:41 51°13.733 2°55.712 17.8747 0.030316 0.174889 -0.443383
2010-11-10 07:51:46 51°13.739 2°55.706 17.8778 0.030316 0.174886 -0.443383
2010-11-10 07:51:51 51°13.745 2°55.699 17.9008 0.030316 0.174886 -0.443383
2010-11-10 07:51:56 51°13.752 2°55.692 17.8937 0.030316 0.17488 -0.443383
2010-11-10 07:52:01 51°13.758 2°55.685 17.8868 0.030316 0.17488 -0.408559
2010-11-10 07:52:06 51°13.765 2°55.678 17.8906 0.030316 0.174883 -0.408559
2010-11-10 07:52:11 51°13.773 2°55.671 17.8932 0.030316 0.174886 -0.443383
2010-11-10 07:52:16 51°13.781 2°55.665 17.8811 0.030316 0.174886 -0.443383
2010-11-10 07:52:21 51°13.789 2°55.658 17.8881 0.030316 0.174886 -0.443383
2010-11-10 07:52:26 51°13.797 2°55.653 17.9028 0.030316 0.174886 -0.443383
2010-11-10 07:52:31 51°13.806 2°55.647 17.8947 0.030316 0.174886 -0.408559
2010-11-10 07:52:36 51°13.815 2°55.642 17.9013 0.030316 0.174883 -0.443383
2010-11-10 07:52:41 51°13.824 2°55.638 17.8974 0.03042 0.175491 -0.408559
2010-11-10 07:52:46 51°13.833 2°55.635 17.8926 0.030316 0.174883 -0.408559
2010-11-10 07:52:51 51°13.842 2°55.633 17.891 0.030316 0.174883 -0.408559
2010-11-10 07:52:56 51°13.852 2°55.631 17.9008 0.030316 0.174883 -0.408559
2010-11-10 07:53:01 51°13.861 2°55.631 17.8962 0.030316 0.174883 -0.408559
2010-11-10 07:53:06 51°13.87 2°55.631 17.882 0.030316 0.174886 -0.443383
2010-11-10 07:53:11 51°13.878 2°55.631 17.8694 0.030316 0.174886 -0.443383
2010-11-10 07:53:16 51°13.886 2°55.632 17.8841 0.030316 0.174889 -0.443383
2010-11-10 07:53:21 51°13.894 2°55.633 17.9078 0.030316 0.174889 -0.443383
2010-11-10 07:53:26 51°13.901 2°55.634 17.8568 0.030316 0.174892 -0.443383
2010-11-10 07:53:31 51°13.907 2°55.636 17.8607 0.030316 0.174889 -0.443383
2010-11-10 07:53:36 51°13.913 2°55.639 17.849 0.030316 0.174886 -0.408559
2010-11-10 07:53:41 51°13.919 2°55.642 17.8687 0.030316 0.174886 -0.408559
2010-11-10 07:53:46 51°13.923 2°55.645 17.7893 0.030316 0.174883 -0.443383
2010-11-10 07:53:51 51°13.928 2°55.648 17.8124 0.030316 0.174883 -0.443383
2010-11-10 07:53:56 51°13.932 2°55.652 17.8272 0.030316 0.174886 -0.408559
2010-11-10 07:54:01 51°13.936 2°55.655 17.8446 0.030316 0.174886 -0.408559
2010-11-10 07:54:06 51°13.939 2°55.659 17.8235 0.030316 0.174889 -0.443383
2010-11-10 07:54:11 51°13.942 2°55.662 17.8342 0.030316 0.174889 -0.443383
2010-11-10 07:54:16 51°13.944 2°55.665 17.8429 0.030316 0.174886 -0.443383
2010-11-10 07:54:21 51°13.945 2°55.667 17.8716 0.030316 0.174886 -0.443383
2010-11-10 07:54:26 51°13.946 2°55.667 17.8823 0.030316 0.174886 -0.408559
2010-11-10 07:54:31 51°13.946 2°55.667 17.8824 0.030316 0.174883 -0.443383
2010-11-10 07:54:36 51°13.946 2°55.665 17.7906 0.03042 0.175485 -0.443383
2010-11-10 07:54:41 51°13.945 2°55.663 17.7119 0.030316 0.174877 -0.443383
2010-11-10 07:54:46 51°13.945 2°55.66 17.6695 0.030316 0.174877 -0.443383
2010-11-10 07:54:51 51°13.945 2°55.657 17.6659 0.030316 0.174877 -0.443383
2010-11-10 07:54:56 51°13.944 2°55.653 17.5561 0.030316 0.17488 -0.408559
2010-11-10 07:55:00 51°13.944 2°55.649 17.5297 0.030316 0.174886 -0.443383
2010-11-10 07:55:06 51°13.944 2°55.643 17.545 0.030316 0.174889 -0.443383
2010-11-10 07:55:11 51°13.945 2°55.638 17.5101 0.030316 0.174895 -0.443383
2010-11-10 07:55:16 51°13.946 2°55.633 17.533 0.030316 0.174895 -0.408559
2010-11-10 07:55:21 51°13.947 2°55.628 17.6415 0.030316 0.174895 -0.408559
2010-11-10 07:55:26 51°13.949 2°55.622 17.6844 0.030316 0.174895 -0.408559
2010-11-10 07:55:31 51°13.951 2°55.617 17.7434 0.030316 0.174892 -0.408559
2010-11-10 07:55:36 51°13.954 2°55.611 17.7533 0.030316 0.174886 -0.443383
2010-11-10 07:55:41 51°13.958 2°55.605 17.7636 0.030316 0.174886 -0.443383
2010-11-10 07:55:46 51°13.962 2°55.599 17.7818 0.030316 0.17488 -0.443383
2010-11-10 07:55:51 51°13.968 2°55.593 17.8005 0.030316 0.17488 -0.443383
2010-11-10 07:55:56 51°13.974 2°55.586 17.8005 0.030316 0.17488 -0.408559
2010-11-10 07:56:00 51°13.98 2°55.58 17.7829 0.03042 0.175491 -0.443383
2010-11-10 07:56:06 51°13.989 2°55.571 17.7982 0.03042 0.175494 -0.408559
2010-11-10 07:56:10 51°13.995 2°55.564 17.7737 0.030316 0.174883 -0.443383
2010-11-10 07:56:16 51°14.006 2°55.554 17.78 0.030316 0.174883 -0.408559
2010-11-10 07:56:20 51°14.013 2°55.547 17.7725 0.030316 0.174883 -0.408559
2010-11-10 07:56:25 51°14.022 2°55.538 17.7356 0.030316 0.17488 -0.408559
2010-11-10 07:56:30 51°14.032 2°55.529 17.7353 0.030316 0.174877 -0.408559
2010-11-10 07:56:35 51°14.043 2°55.52 17.7319 0.030316 0.174871 -0.408559
2010-11-10 07:56:40 51°14.053 2°55.51 17.679 0.030316 0.174874 -0.478207
2010-11-10 07:56:45 51°14.063 2°55.5 17.7156 0.030316 0.174871 -0.443383
2010-11-10 07:56:51 51°14.076 2°55.488 17.6912 0.030316 0.174871 -0.443383
2010-11-10 07:56:56 51°14.087 2°55.478 17.7563 0.03042 0.175482 -0.443383
2010-11-10 07:57:01 51°14.098 2°55.467 17.7373 0.030316 0.174874 -0.408559
2010-11-10 07:57:06 51°14.109 2°55.457 17.7491 0.030316 0.174877 -0.443383
2010-11-10 07:57:11 51°14.12 2°55.446 17.6683 0.030316 0.174877 -0.443383
2010-11-10 07:57:16 51°14.131 2°55.436 17.6924 0.030316 0.17488 -0.443383
2010-11-10 07:57:21 51°14.143 2°55.425 17.7289 0.030316 0.17488 -0.443383
2010-11-10 07:57:26 51°14.155 2°55.413 17.7447 0.030316 0.174883 -0.443383
2010-11-10 07:57:31 51°14.166 2°55.401 17.6971 0.030316 0.174886 -0.443383
2010-11-10 07:57:36 51°14.178 2°55.389 17.6563 0.030316 0.174886 -0.478207
2010-11-10 07:57:41 51°14.19 2°55.376 17.7289 0.030316 0.174889 -0.443383
2010-11-10 07:57:46 51°14.201 2°55.362 17.7009 0.030316 0.174883 -0.443383
2010-11-10 07:57:51 51°14.213 2°55.348 17.6529 0.030316 0.174883 -0.443383
2010-11-10 07:57:56 51°14.224 2°55.334 17.5823 0.030316 0.174886 -0.443383
2010-11-10 07:58:01 51°14.236 2°55.321 17.6493 0.030316 0.174886 -0.443383
2010-11-10 07:58:06 51°14.248 2°55.307 17.6919 0.030316 0.174877 -0.443383
2010-11-10 07:58:11 51°14.26 2°55.293 17.6257 0.030316 0.174877 -0.408559
2010-11-10 07:58:16 51°14.272 2°55.279 17.5663 0.030316 0.174877 -0.443383
2010-11-10 07:58:21 51°14.284 2°55.265 17.6275 0.030316 0.174877 -0.443383
2010-11-10 07:58:26 51°14.296 2°55.252 17.5157 0.030316 0.174874 -0.408559
2010-11-10 07:58:31 51°14.308 2°55.238 17.6014 0.030316 0.174871 -0.478207
2010-11-10 07:58:36 51°14.32 2°55.224 17.571 0.030316 0.174877 -0.443383
2010-11-10 07:58:40 51°14.33 2°55.214 17.5019 0.030316 0.174877 -0.443383
2010-11-10 07:58:45 51°14.342 2°55.2 17.5967 0.030316 0.17488 -0.443383
2010-11-10 07:58:50 51°14.354 2°55.185 17.5851 0.030316 0.17488 -0.443383
2010-11-10 07:58:55 51°14.366 2°55.171 17.5739 0.03042 0.175482 -0.443383
2010-11-10 07:59:00 51°14.379 2°55.156 17.5594 0.030316 0.174886 -0.443383
2010-11-10 07:59:05 51°14.391 2°55.143 17.4811 0.030316 0.17488 -0.408559
2010-11-10 07:59:10 51°14.404 2°55.13 17.5517 0.030316 0.174874 -0.443383
2010-11-10 07:59:15 51°14.416 2°55.116 17.5944 0.030316 0.17488 -0.408559
2010-11-10 07:59:20 51°14.429 2°55.101 17.5962 0.030316 0.17488 -0.408559
2010-11-10 07:59:24 51°14.438 2°55.089 17.478 0.03042 0.175485 -0.443383
2010-11-10 07:59:30 51°14.453 2°55.07 17.4421 0.030316 0.174898 -0.408559
2010-11-10 07:59:35 51°14.464 2°55.056 17.5197 0.03042 0.175485 -0.443383
2010-11-10 07:59:40 51°14.476 2°55.042 17.4828 0.030316 0.174915 -0.443383
2010-11-10 07:59:44 51°14.487 2°55.03 17.4395 0.03042 0.175496 -0.408559
2010-11-10 07:59:49 51°14.5 2°55.016 17.5101 0.03042 0.175496 -0.408559
2010-11-10 07:59:54 51°14.512 2°55.001 17.4628 0.03042 0.175482 -0.443383
2010-11-10 07:59:59 51°14.524 2°54.984 17.4668 0.030316 0.174871 -0.443383
2010-11-10 08:00:04 51°14.535 2°54.964 17.4507 0.03042 0.175464 -0.443383
2010-11-10 08:00:08 51°14.544 2°54.949 17.3901 0.03042 0.175458 -0.443383
2010-11-10 08:00:14 51°14.558 2°54.925 17.4484 0.030316 0.174877 -0.408559
2010-11-10 08:00:19 51°14.569 2°54.905 17.4574 0.030316 0.174877 -0.408559
2010-11-10 08:00:24 51°14.58 2°54.886 17.4641 0.03042 0.175473 -0.443383
2010-11-10 08:00:28 51°14.59 2°54.87 17.4269 0.03042 0.175482 -0.408559
2010-11-10 08:00:33 51°14.603 2°54.852 17.4496 0.030316 0.174877 -0.443383
2010-11-10 08:00:38 51°14.615 2°54.834 17.4866 0.030316 0.174886 -0.443383
2010-11-10 08:00:43 51°14.628 2°54.817 17.5024 0.03042 0.175496 -0.408559
2010-11-10 08:00:48 51°14.641 2°54.801 17.4573 0.03042 0.175496 -0.408559
2010-11-10 08:00:52 51°14.651 2°54.789 17.4522 0.03042 0.175479 -0.408559
2010-11-10 08:00:57 51°14.664 2°54.773 17.4486 0.03042 0.175479 -0.443383
2010-11-10 08:01:03 51°14.68 2°54.751 17.472 0.03042 0.175464 -0.443383
2010-11-10 08:01:08 51°14.694 2°54.734 17.4852 0.030316 0.174853 -0.443383
2010-11-10 08:01:12 51°14.704 2°54.719 17.4311 0.03042 0.175452 -0.478207
2010-11-10 08:01:16 51°14.714 2°54.705 17.4381 0.03042 0.175452 -0.478207
2010-11-10 08:01:23 51°14.733 2°54.681 17.4443 0.030316 0.174853 -0.443383
2010-11-10 08:01:28 51°14.745 2°54.663 17.4332 0.03042 0.175446 -0.443383
2010-11-10 08:01:32 51°14.756 2°54.65 17.4263 0.030316 0.174841 -0.478207
2010-11-10 08:01:38 51°14.772 2°54.628 17.4464 0.03042 0.175461 -0.443383
2010-11-10 08:01:43 51°14.785 2°54.61 17.4622 0.03042 0.175467 -0.443383
2010-11-10 08:01:48 51°14.799 2°54.593 17.4787 0.03042 0.175467 -0.443383
2010-11-10 08:01:52 51°14.809 2°54.577 17.4743 0.03042 0.175476 -0.408559
2010-11-10 08:01:57 51°14.822 2°54.56 17.4359 0.030316 0.174895 -0.408559
2010-11-10 08:02:03 51°14.837 2°54.537 17.4294 0.03042 0.175494 -0.443383
2010-11-10 08:02:08 51°14.85 2°54.519 17.4333 0.030316 0.174898 -0.408559
2010-11-10 08:02:12 51°14.861 2°54.505 17.4783 0.030316 0.174901 -0.443383
2010-11-10 08:02:17 51°14.874 2°54.487 17.4632 0.030316 0.174901 -0.443383
2010-11-10 08:02:23 51°14.89 2°54.466 17.4915 0.03042 0.175508 -0.373735
2010-11-10 08:02:28 51°14.903 2°54.447 17.4692 0.03042 0.175505 -0.443383
2010-11-10 08:02:32 51°14.914 2°54.433 17.4808 0.030316 0.174898 -0.443383
2010-11-10 08:02:37 51°14.927 2°54.414 17.4674 0.03042 0.175502 -0.443383
2010-11-10 08:02:43 51°14.942 2°54.392 17.4737 0.03042 0.175496 -0.478207
2010-11-10 08:02:48 51°14.953 2°54.373 17.4413 0.03042 0.175496 -0.478207
2010-11-10 08:02:52 51°14.963 2°54.357 17.422 0.030316 0.174907 -0.443383
2010-11-10 08:02:56 51°14.972 2°54.34 17.4316 0.03042 0.175511 -0.443383
2010-11-10 08:03:03 51°14.988 2°54.314 17.456 0.03042 0.175494 -0.443383
2010-11-10 08:03:08 51°14.999 2°54.292 17.4561 0.030316 0.174907 -0.408559
2010-11-10 08:03:12 51°15.007 2°54.276 17.4654 0.030316 0.174901 -0.408559
2010-11-10 08:03:16 51°15.016 2°54.26 17.4241 0.030316 0.174901 -0.408559
2010-11-10 08:03:23 51°15.028 2°54.23 17.4238 0.03042 0.175553 -0.443383
2010-11-10 08:03:28 51°15.038 2°54.208 17.4522 0.03042 0.175583 -0.443383
2010-11-10 08:03:33 51°15.048 2°54.187 17.423 0.03042 0.175446 -0.443383
2010-11-10 08:03:38 51°15.057 2°54.165 17.434 0.030524 0.17603 -0.443383
2010-11-10 08:03:43 51°15.067 2°54.143 17.4679 0.03042 0.175434 -0.443383
2010-11-10 08:03:48 51°15.078 2°54.121 17.4359 0.03042 0.175434 -0.443383
2010-11-10 08:03:52 51°15.085 2°54.103 17.4464 0.03042 0.175434 -0.408559
2010-11-10 08:03:57 51°15.096 2°54.081 17.4445 0.03042 0.175422 -0.373735
2010-11-10 08:04:03 51°15.109 2°54.054 17.4534 0.03042 0.175425 -0.408559
2010-11-10 08:04:08 51°15.12 2°54.033 17.4625 0.03042 0.175428 -0.443383
2010-11-10 08:04:12 51°15.129 2°54.015 17.4565 0.03042 0.175458 -0.408559
2010-11-10 08:04:18 51°15.142 2°53.988 17.479 0.03042 0.175458 -0.408559
2010-11-10 08:04:23 51°15.153 2°53.967 17.4427 0.03042 0.175452 -0.443383
2010-11-10 08:04:27 51°15.162 2°53.949 17.4503 0.03042 0.175479 -0.443383
2010-11-10 08:04:32 51°15.174 2°53.928 17.4809 0.03042 0.175482 -0.408559
2010-11-10 08:04:37 51°15.186 2°53.907 17.4761 0.03042 0.175494 -0.443383
2010-11-10 08:04:43 51°15.2 2°53.885 17.4482 0.03042 0.175488 -0.443383
2010-11-10 08:04:48 51°15.211 2°53.865 17.4479 0.03042 0.175488 -0.443383
2010-11-10 08:04:52 51°15.221 2°53.849 17.4511 0.030316 0.174912 -0.443383
2010-11-10 08:04:57 51°15.233 2°53.829 17.4599 0.03042 0.175508 -0.408559
2010-11-10 08:05:03 51°15.248 2°53.806 17.447 0.03042 0.175514 -0.443383
2010-11-10 08:05:08 51°15.26 2°53.787 17.4481 0.03042 0.175496 -0.443383
2010-11-10 08:05:12 51°15.27 2°53.772 17.4627 0.03042 0.175511 -0.408559
2010-11-10 08:05:16 51°15.28 2°53.757 17.4782 0.03042 0.175511 -0.408559
2010-11-10 08:05:23 51°15.296 2°53.73 17.4512 0.03042 0.175508 -0.443383
2010-11-10 08:05:28 51°15.309 2°53.712 17.4541 0.030316 0.174954 -0.443383
2010-11-10 08:05:32 51°15.318 2°53.697 17.4608 0.03042 0.175565 -0.443383
2010-11-10 08:05:36 51°15.328 2°53.682 17.4715 0.030316 0.174948 -0.408559
2010-11-10 08:05:43 51°15.344 2°53.656 17.4684 0.030524 0.176119 -0.478207
2010-11-10 08:05:48 51°15.356 2°53.637 17.4569 0.030524 0.176119 -0.478207
2010-11-10 08:05:52 51°15.365 2°53.622 17.4659 0.03042 0.175529 -0.443383
2010-11-10 08:05:57 51°15.377 2°53.603 17.4705 0.03042 0.175535 -0.408559
2010-11-10 08:06:03 51°15.391 2°53.579 17.4783 0.03042 0.175532 -0.443383
2010-11-10 08:06:08 51°15.403 2°53.56 17.4585 0.03042 0.175526 -0.443383
2010-11-10 08:06:13 51°15.415 2°53.541 17.4728 0.03042 0.175529 -0.443383
2010-11-10 08:06:17 51°15.424 2°53.525 17.4622 0.03042 0.175529 -0.443383
2010-11-10 08:06:22 51°15.437 2°53.507 17.4715 0.03042 0.175514 -0.443383
2010-11-10 08:06:28 51°15.453 2°53.485 17.4779 0.03042 0.175511 -0.443383
2010-11-10 08:06:32 51°15.463 2°53.472 17.4824 0.03042 0.175505 -0.408559
2010-11-10 08:06:37 51°15.477 2°53.456 17.4659 0.03042 0.175505 -0.408559
2010-11-10 08:06:43 51°15.493 2°53.438 17.4732 0.03042 0.175514 -0.408559
2010-11-10 08:06:48 51°15.507 2°53.423 17.4744 0.03042 0.175514 -0.408559
2010-11-10 08:06:52 51°15.518 2°53.411 17.4662 0.03042 0.175541 -0.408559
2010-11-10 08:06:57 51°15.532 2°53.397 17.4649 0.03042 0.175526 -0.443383
2010-11-10 08:07:03 51°15.55 2°53.38 17.4702 0.03042 0.175526 -0.443383
2010-11-10 08:07:08 51°15.565 2°53.368 17.4912 0.03042 0.175538 -0.443383
2010-11-10 08:07:12 51°15.576 2°53.358 17.4907 0.03042 0.175559 -0.408559
2010-11-10 08:07:18 51°15.593 2°53.346 17.476 0.03042 0.175559 -0.408559
2010-11-10 08:07:23 51°15.607 2°53.334 17.493 0.030316 0.174978 -0.443383
2010-11-10 08:07:28 51°15.62 2°53.323 17.4919 0.03042 0.175562 -0.443383
2010-11-10 08:07:32 51°15.631 2°53.314 17.4765 0.03042 0.175568 -0.443383
2010-11-10 08:07:38 51°15.647 2°53.3 17.4898 0.03042 0.175568 -0.443383
2010-11-10 08:07:44 51°15.663 2°53.288 17.477 0.03042 0.175547 -0.443383
2010-11-10 08:07:48 51°15.674 2°53.279 17.4829 0.03042 0.175547 -0.443383
2010-11-10 08:07:53 51°15.688 2°53.268 17.4842 0.03042 0.175556 -0.408559
2010-11-10 08:07:58 51°15.702 2°53.256 17.4843 0.03042 0.175505 -0.478207
2010-11-10 08:08:03 51°15.716 2°53.245 17.4895 0.03042 0.175488 -0.443383
2010-11-10 08:08:08 51°15.73 2°53.234 17.4891 0.03042 0.175467 -0.443383
2010-11-10 08:08:12 51°15.742 2°53.226 17.4854 0.03042 0.175455 -0.443383
2010-11-10 08:08:17 51°15.757 2°53.214 17.4989 0.03042 0.175455 -0.443383
2010-11-10 08:08:23 51°15.775 2°53.201 17.4973 0.03042 0.175479 -0.443383
2010-11-10 08:08:28 51°15.789 2°53.189 17.4854 0.03042 0.175499 -0.443383
2010-11-10 08:08:32 51°15.801 2°53.181 17.4887 0.03042 0.175526 -0.408559
2010-11-10 08:08:37 51°15.816 2°53.17 17.4874 0.03042 0.17555 -0.478207
2010-11-10 08:08:43 51°15.833 2°53.157 17.4914 0.030316 0.174975 -0.443383
2010-11-10 08:08:47 51°15.845 2°53.147 17.4977 0.030316 0.174975 -0.443383
2010-11-10 08:08:52 51°15.86 2°53.136 17.494 0.03042 0.175565 -0.443383
2010-11-10 08:08:58 51°15.878 2°53.122 17.4961 0.03042 0.175574 -0.443383
2010-11-10 08:09:03 51°15.892 2°53.11 17.4957 0.03042 0.175562 -0.443383
2010-11-10 08:09:07 51°15.904 2°53.101 17.5019 0.03042 0.175586 -0.443383
2010-11-10 08:09:12 51°15.919 2°53.09 17.5009 0.03042 0.175571 -0.443383
2010-11-10 08:09:17 51°15.934 2°53.079 17.5043 0.03042 0.175571 -0.443383
2010-11-10 08:09:23 51°15.952 2°53.065 17.5078 0.03042 0.175574 -0.443383
2010-11-10 08:09:28 51°15.966 2°53.054 17.5077 0.03042 0.175589 -0.443383
2010-11-10 08:09:32 51°15.978 2°53.045 17.5073 0.03042 0.175603 -0.408559
2010-11-10 08:09:37 51°15.993 2°53.033 17.5087 0.03042 0.175592 -0.443383
2010-11-10 08:09:43 51°16.011 2°53.019 17.5111 0.03042 0.175583 -0.443383
2010-11-10 08:09:48 51°16.026 2°53.007 17.5042 0.03042 0.175583 -0.443383
2010-11-10 08:09:52 51°16.038 2°52.998 17.5038 0.03042 0.175583 -0.443383
2010-11-10 08:09:56 51°16.05 2°52.988 17.5161 0.03042 0.175589 -0.443383
2010-11-10 08:10:03 51°16.071 2°52.972 17.5155 0.03042 0.1756 -0.443383
2010-11-10 08:10:08 51°16.085 2°52.96 17.5074 0.03042 0.175603 -0.408559
2010-11-10 08:10:13 51°16.099 2°52.948 17.5135 0.030316 0.175016 -0.408559
2010-11-10 08:10:18 51°16.113 2°52.936 17.5181 0.030316 0.175016 -0.408559
2010-11-10 08:10:23 51°16.127 2°52.925 17.5155 0.03042 0.175609 -0.408559
2010-11-10 08:10:28 51°16.141 2°52.913 17.5175 0.030316 0.175004 -0.443383
2010-11-10 08:10:32 51°16.153 2°52.903 17.5175 0.03042 0.17558 -0.443383
2010-11-10 08:10:37 51°16.167 2°52.891 17.5132 0.03042 0.175565 -0.443383
2010-11-10 08:10:43 51°16.185 2°52.878 17.5171 0.030316 0.174963 -0.443383
2010-11-10 08:10:48 51°16.2 2°52.866 17.5177 0.030316 0.174963 -0.443383
2010-11-10 08:10:52 51°16.212 2°52.858 17.5144 0.03042 0.175565 -0.443383
2010-11-10 08:10:57 51°16.227 2°52.847 17.5238 0.03042 0.175589 -0.408559
2010-11-10 08:11:03 51°16.245 2°52.834 17.5181 0.03042 0.175589 -0.443383
2010-11-10 08:11:08 51°16.26 2°52.824 17.5223 0.03042 0.175589 -0.408559
2010-11-10 08:11:12 51°16.272 2°52.816 17.5199 0.03042 0.175606 -0.443383
2010-11-10 08:11:18 51°16.291 2°52.804 17.5193 0.03042 0.175606 -0.443383
2010-11-10 08:11:23 51°16.306 2°52.794 17.5277 0.03042 0.175615 -0.443383
2010-11-10 08:11:27 51°16.318 2°52.787 17.5298 0.03042 0.175615 -0.443383
2010-11-10 08:11:32 51°16.334 2°52.777 17.534 0.030316 0.175037 -0.443383
2010-11-10 08:11:37 51°16.349 2°52.767 17.5298 0.030316 0.175043 -0.443383
2010-11-10 08:11:43 51°16.366 2°52.756 17.532 0.03042 0.17563 -0.408559
2010-11-10 08:11:48 51°16.381 2°52.747 17.5341 0.03042 0.17563 -0.408559
2010-11-10 08:11:52 51°16.393 2°52.739 17.5326 0.03042 0.175609 -0.443383
2010-11-10 08:11:58 51°16.411 2°52.727 17.5367 0.03042 0.175592 -0.443383
2010-11-10 08:12:03 51°16.426 2°52.718 17.5286 0.03042 0.175583 -0.478207
2010-11-10 08:12:08 51°16.441 2°52.708 17.5327 0.03042 0.17558 -0.443383
2010-11-10 08:12:12 51°16.453 2°52.7 17.5344 0.030316 0.174995 -0.408559
2010-11-10 08:12:16 51°16.465 2°52.693 17.5387 0.030316 0.174995 -0.408559
2010-11-10 08:12:23 51°16.487 2°52.682 17.5416 0.03042 0.175592 -0.443383
2010-11-10 08:12:28 51°16.502 2°52.674 17.5367 0.03042 0.175618 -0.408559
2010-11-10 08:12:32 51°16.514 2°52.668 17.5392 0.03042 0.175615 -0.443383
2010-11-10 08:12:37 51°16.529 2°52.661 17.5427 0.03042 0.175618 -0.443383
2010-11-10 08:12:43 51°16.548 2°52.652 17.5372 0.03042 0.175603 -0.443383
2010-11-10 08:12:48 51°16.563 2°52.644 17.5434 0.03042 0.175603 -0.443383
2010-11-10 08:12:52 51°16.575 2°52.638 17.541 0.03042 0.175615 -0.408559
2010-11-10 08:12:57 51°16.591 2°52.631 17.5447 0.03042 0.17563 -0.443383
2010-11-10 08:13:03 51°16.61 2°52.623 17.5495 0.03042 0.175624 -0.408559
2010-11-10 08:13:08 51°16.624 2°52.616 17.5496 0.03042 0.175636 -0.408559
2010-11-10 08:13:12 51°16.637 2°52.611 17.5439 0.03042 0.17563 -0.408559
2010-11-10 08:13:17 51°16.651 2°52.603 17.5439 0.03042 0.17563 -0.408559
2010-11-10 08:13:23 51°16.669 2°52.596 17.5453 0.030316 0.175034 -0.443383
2010-11-10 08:13:28 51°16.683 2°52.589 17.5483 0.03042 0.175627 -0.443383
2010-11-10 08:13:32 51°16.695 2°52.584 17.547 0.03042 0.175648 -0.443383
2010-11-10 08:13:37 51°16.71 2°52.578 17.5491 0.03042 0.175636 -0.443383
2010-11-10 08:13:43 51°16.728 2°52.571 17.5477 0.03042 0.175648 -0.443383
2010-11-10 08:13:48 51°16.744 2°52.564 17.5565 0.03042 0.175648 -0.443383
2010-11-10 08:13:52 51°16.756 2°52.56 17.554 0.03042 0.175636 -0.443383
2010-11-10 08:13:58 51°16.774 2°52.553 17.556 0.030316 0.175046 -0.443383
2010-11-10 08:14:03 51°16.79 2°52.547 17.555 0.03042 0.175639 -0.443383
2010-11-10 08:14:08 51°16.806 2°52.54 17.5596 0.03042 0.175645 -0.408559
2010-11-10 08:14:12 51°16.818 2°52.535 17.5589 0.03042 0.175642 -0.443383
2010-11-10 08:14:18 51°16.838 2°52.528 17.5561 0.03042 0.175642 -0.443383
2010-11-10 08:14:23 51°16.854 2°52.522 17.5613 0.03042 0.175648 -0.443383
2010-11-10 08:14:28 51°16.869 2°52.515 17.5656 0.03042 0.175642 -0.478207
2010-11-10 08:14:32 51°16.882 2°52.51 17.5609 0.030316 0.175049 -0.443383
2010-11-10 08:14:36 51°16.895 2°52.505 17.5654 0.03042 0.175651 -0.443383
2010-11-10 08:14:42 51°16.914 2°52.498 17.566 0.03042 0.175657 -0.408559
2010-11-10 08:14:48 51°16.934 2°52.491 17.5621 0.03042 0.175657 -0.408559
2010-11-10 08:14:52 51°16.947 2°52.485 17.5629 0.030316 0.175063 -0.408559
2010-11-10 08:14:56 51°16.959 2°52.48 17.5667 0.030316 0.175066 -0.443383
2010-11-10 08:15:03 51°16.982 2°52.472 17.5675 0.030316 0.175072 -0.408559
2010-11-10 08:15:08 51°16.998 2°52.465 17.5732 0.030316 0.175072 -0.443383
2010-11-10 08:15:12 51°17.011 2°52.459 17.5689 0.03042 0.175663 -0.443383
2010-11-10 08:15:18 51°17.028 2°52.452 17.5693 0.03042 0.175663 -0.443383
2010-11-10 08:15:23 51°17.044 2°52.446 17.5703 0.030316 0.175087 -0.408559
2010-11-10 08:15:28 51°17.06 2°52.44 17.5689 0.03042 0.175699 -0.443383
2010-11-10 08:15:32 51°17.072 2°52.435 17.5758 0.03042 0.17569 -0.408559
2010-11-10 08:15:38 51°17.091 2°52.428 17.5763 0.030316 0.175078 -0.408559
2010-11-10 08:15:43 51°17.106 2°52.423 17.5765 0.03042 0.175666 -0.443383
2010-11-10 08:15:47 51°17.118 2°52.42 17.5773 0.03042 0.175666 -0.443383
2010-11-10 08:15:52 51°17.134 2°52.415 17.5792 0.03042 0.175639 -0.443383
2010-11-10 08:15:58 51°17.153 2°52.412 17.577 0.030316 0.175031 -0.408559
2010-11-10 08:16:03 51°17.169 2°52.409 17.6715 0.030316 0.175028 -0.443383
2010-11-10 08:16:08 51°17.185 2°52.407 17.7191 0.03042 0.175639 -0.443383
2010-11-10 08:16:12 51°17.197 2°52.406 17.7065 0.03042 0.175642 -0.443383
2010-11-10 08:16:18 51°17.216 2°52.405 17.6779 0.03042 0.175642 -0.443383
2010-11-10 08:16:23 51°17.232 2°52.402 17.6589 0.030316 0.17506 -0.443383
2010-11-10 08:16:28 51°17.247 2°52.401 17.6505 0.03042 0.175681 -0.443383
2010-11-10 08:16:32 51°17.26 2°52.4 17.6646 0.03042 0.175696 -0.443383
2010-11-10 08:16:37 51°17.277 2°52.398 17.5818 0.03042 0.175696 -0.443383
2010-11-10 08:16:43 51°17.295 2°52.397 17.532 0.03042 0.175684 -0.373735
2010-11-10 08:16:48 51°17.312 2°52.394 17.5505 0.03042 0.175684 -0.373735
2010-11-10 08:16:52 51°17.325 2°52.393 17.5571 0.030316 0.175081 -0.408559
2010-11-10 08:16:56 51°17.337 2°52.391 17.5698 0.03042 0.175678 -0.408559
2010-11-10 08:17:03 51°17.36 2°52.389 17.567 0.030316 0.175078 -0.408559
2010-11-10 08:17:08 51°17.377 2°52.386 17.5674 0.030316 0.17509 -0.408559
2010-11-10 08:17:12 51°17.389 2°52.386 17.5948 0.03042 0.175684 -0.443383
2010-11-10 08:17:16 51°17.402 2°52.384 17.6009 0.03042 0.175684 -0.443383
2010-11-10 08:17:23 51°17.425 2°52.383 17.5851 0.030316 0.175084 -0.408559
2010-11-10 08:17:28 51°17.441 2°52.385 17.5908 0.03042 0.175672 -0.408559
2010-11-10 08:17:32 51°17.454 2°52.386 17.6171 0.03042 0.175666 -0.443383
2010-11-10 08:17:38 51°17.473 2°52.388 17.6002 0.03042 0.175669 -0.443383
2010-11-10 08:17:43 51°17.489 2°52.391 17.6246 0.03042 0.175669 -0.443383
2010-11-10 08:17:47 51°17.501 2°52.392 17.6209 0.03042 0.175669 -0.443383
2010-11-10 08:17:52 51°17.517 2°52.396 17.608 0.030316 0.175072 -0.408559
2010-11-10 08:17:57 51°17.533 2°52.4 17.606 0.03042 0.175681 -0.408559
2010-11-10 08:18:03 51°17.552 2°52.403 17.6382 0.030316 0.17509 -0.408559
2010-11-10 08:18:08 51°17.567 2°52.407 17.6255 0.03042 0.17569 -0.443383
2010-11-10 08:18:12 51°17.58 2°52.41 17.6383 0.030316 0.175117 -0.408559
2010-11-10 08:18:18 51°17.598 2°52.415 17.6186 0.030316 0.175117 -0.408559
2010-11-10 08:18:23 51°17.614 2°52.418 17.6346 0.030316 0.175105 -0.408559
2010-11-10 08:18:28 51°17.629 2°52.422 17.6014 0.030316 0.175102 -0.443383
2010-11-10 08:18:32 51°17.641 2°52.425 17.5972 0.03042 0.17571 -0.443383
2010-11-10 08:18:38 51°17.659 2°52.429 17.5452 0.03042 0.175713 -0.443383
2010-11-10 08:18:43 51°17.673 2°52.432 17.6155 0.03042 0.175743 -0.443383
2010-11-10 08:18:48 51°17.688 2°52.433 17.6013 0.03042 0.175743 -0.443383
2010-11-10 08:18:52 51°17.7 2°52.436 17.6307 0.030316 0.175084 -0.408559
2010-11-10 08:18:57 51°17.715 2°52.439 17.6008 0.03042 0.175648 -0.408559
2010-11-10 08:19:03 51°17.733 2°52.442 17.6048 0.030316 0.175037 -0.443383
2010-11-10 08:19:08 51°17.748 2°52.445 17.5966 0.030316 0.175031 -0.408559
2010-11-10 08:19:12 51°17.76 2°52.447 17.6252 0.03042 0.175651 -0.408559
2010-11-10 08:19:17 51°17.774 2°52.451 17.6284 0.03042 0.175651 -0.408559
2010-11-10 08:19:23 51°17.792 2°52.454 17.6398 0.030316 0.175069 -0.408559
2010-11-10 08:19:28 51°17.807 2°52.457 17.5942 0.03042 0.175672 -0.443383
2010-11-10 08:19:32 51°17.818 2°52.459 17.5916 0.030316 0.175075 -0.408559
2010-11-10 08:19:37 51°17.834 2°52.461 17.5941 0.03042 0.17569 -0.408559
2010-11-10 08:19:43 51°17.851 2°52.464 17.6469 0.03042 0.175707 -0.443383
2010-11-10 08:19:48 51°17.866 2°52.467 17.5914 0.03042 0.175707 -0.443383
2010-11-10 08:19:53 51°17.881 2°52.47 17.6292 0.030316 0.175072 -0.408559
2010-11-10 08:19:57 51°17.893 2°52.471 17.5868 0.03042 0.175654 -0.443383
2010-11-10 08:20:02 51°17.909 2°52.475 17.6114 0.030316 0.175025 -0.443383
2010-11-10 08:20:08 51°17.926 2°52.478 17.6425 0.03042 0.175636 -0.443383
2010-11-10 08:20:12 51°17.938 2°52.48 17.6399 0.030316 0.175052 -0.408559
2010-11-10 08:20:18 51°17.957 2°52.484 17.6327 0.030316 0.175052 -0.408559
2010-11-10 08:20:23 51°17.972 2°52.486 17.6369 0.03042 0.17566 -0.408559
2010-11-10 08:20:28 51°17.988 2°52.488 17.614 0.03042 0.175675 -0.443383
2010-11-10 08:20:33 51°18.003 2°52.491 17.6374 0.030316 0.175087 -0.443383
2010-11-10 08:20:37 51°18.015 2°52.493 17.5966 0.03042 0.17569 -0.443383
2010-11-10 08:20:43 51°18.034 2°52.496 17.6302 0.030316 0.175084 -0.408559
2010-11-10 08:20:48 51°18.049 2°52.499 17.6519 0.030316 0.175084 -0.408559
2010-11-10 08:20:53 51°18.063 2°52.502 17.6288 0.030316 0.175143 -0.408559
2010-11-10 08:20:58 51°18.078 2°52.504 17.6395 0.03042 0.175657 -0.443383
2010-11-10 08:21:03 51°18.093 2°52.505 17.6115 0.030316 0.17509 -0.408559
2010-11-10 08:21:08 51°18.109 2°52.509 17.6452 0.03042 0.175687 -0.408559
2010-11-10 08:21:12 51°18.122 2°52.51 17.6156 0.03042 0.175704 -0.408559
2010-11-10 08:21:17 51°18.137 2°52.513 17.6292 0.03042 0.175704 -0.408559
2010-11-10 08:21:23 51°18.154 2°52.517 17.6499 0.030316 0.175102 -0.408559
2010-11-10 08:21:28 51°18.17 2°52.519 17.6794 0.03042 0.175693 -0.443383
2010-11-10 08:21:32 51°18.182 2°52.52 17.6557 0.03042 0.175678 -0.443383
2010-11-10 08:21:38 51°18.198 2°52.527 17.6564 0.030316 0.175117 -0.443383
2010-11-10 08:21:44 51°18.216 2°52.532 17.6417 0.03042 0.17571 -0.408559
2010-11-10 08:21:48 51°18.227 2°52.539 17.6253 0.03042 0.17571 -0.408559
2010-11-10 08:21:53 51°18.241 2°52.546 17.6247 0.03042 0.175699 -0.408559
2010-11-10 08:21:58 51°18.255 2°52.555 17.6234 0.03042 0.175704 -0.443383
2010-11-10 08:22:03 51°18.269 2°52.564 17.6682 0.030316 0.175105 -0.408559
2010-11-10 08:22:08 51°18.283 2°52.574 17.6151 0.03042 0.175702 -0.408559
2010-11-10 08:22:13 51°18.297 2°52.583 17.6499 0.03042 0.175699 -0.443383
2010-11-10 08:22:17 51°18.308 2°52.591 17.6539 0.03042 0.175699 -0.443383
2010-11-10 08:22:22 51°18.322 2°52.602 17.6189 0.03042 0.175696 -0.443383
2010-11-10 08:22:28 51°18.338 2°52.616 17.6655 0.03042 0.175687 -0.408559
2010-11-10 08:22:32 51°18.347 2°52.628 17.6515 0.030316 0.175126 -0.408559
2010-11-10 08:22:38 51°18.359 2°52.648 17.6357 0.03042 0.175716 -0.408559
2010-11-10 08:22:43 51°18.367 2°52.666 17.6351 0.03042 0.175699 -0.443383
2010-11-10 08:22:48 51°18.375 2°52.686 17.6455 0.03042 0.175699 -0.443383
2010-11-10 08:22:52 51°18.382 2°52.7 17.6312 0.03042 0.17569 -0.408559
2010-11-10 08:22:58 51°18.392 2°52.724 17.6154 0.03042 0.175699 -0.408559
2010-11-10 08:23:03 51°18.399 2°52.744 17.6216 0.03042 0.17571 -0.408559
2010-11-10 08:23:08 51°18.408 2°52.763 17.6369 0.030316 0.175114 -0.408559
2010-11-10 08:23:12 51°18.414 2°52.78 17.6248 0.03042 0.175719 -0.443383
2010-11-10 08:23:17 51°18.422 2°52.8 17.6461 0.03042 0.175719 -0.443383
2010-11-10 08:23:23 51°18.432 2°52.824 17.632 0.030316 0.175117 -0.373735
2010-11-10 08:23:28 51°18.438 2°52.846 17.6393 0.030316 0.175114 -0.443383
2010-11-10 08:23:32 51°18.445 2°52.862 17.6649 0.03042 0.175719 -0.443383
2010-11-10 08:23:36 51°18.452 2°52.878 17.6228 0.03042 0.175725 -0.443383
2010-11-10 08:23:42 51°18.46 2°52.904 17.6653 0.03042 0.175734 -0.408559
2010-11-10 08:23:48 51°18.471 2°52.928 17.6486 0.03042 0.175734 -0.408559
2010-11-10 08:23:52 51°18.476 2°52.944 17.601 0.03042 0.17574 -0.443383
2010-11-10 08:23:58 51°18.486 2°52.968 17.6346 0.030316 0.175137 -0.408559
2010-11-10 08:24:03 51°18.494 2°52.988 17.5772 0.030316 0.17517 -0.443383
2010-11-10 08:24:08 51°18.501 2°53.009 17.6144 0.030316 0.175146 -0.408559
2010-11-10 08:24:12 51°18.507 2°53.025 17.618 0.03042 0.175752 -0.408559
2010-11-10 08:24:17 51°18.514 2°53.046 17.6628 0.03042 0.175752 -0.408559
2010-11-10 08:24:23 51°18.523 2°53.069 17.6601 0.03042 0.175755 -0.443383
2010-11-10 08:24:27 51°18.529 2°53.085 17.6242 0.03042 0.175746 -0.408559
2010-11-10 08:24:32 51°18.535 2°53.107 17.6631 0.03042 0.175758 -0.443383
2010-11-10 08:24:37 51°18.544 2°53.126 17.6241 0.030316 0.175173 -0.408559
2010-11-10 08:24:43 51°18.552 2°53.151 17.6477 0.030316 0.175155 -0.408559
2010-11-10 08:24:48 51°18.561 2°53.17 17.6012 0.030316 0.175155 -0.408559
2010-11-10 08:24:52 51°18.566 2°53.186 17.6519 0.03042 0.175761 -0.408559
2010-11-10 08:24:58 51°18.576 2°53.21 17.6412 0.030316 0.175149 -0.408559
2010-11-10 08:25:03 51°18.583 2°53.231 17.6211 0.030316 0.175132 -0.408559
2010-11-10 08:25:08 51°18.591 2°53.251 17.6656 0.030316 0.175143 -0.408559
2010-11-10 08:25:12 51°18.598 2°53.267 17.6495 0.030316 0.175143 -0.408559
2010-11-10 08:25:17 51°18.604 2°53.288 17.6209 0.030316 0.175143 -0.408559
2010-11-10 08:25:23 51°18.613 2°53.312 17.6247 0.03042 0.175755 -0.443383
2010-11-10 08:25:28 51°18.619 2°53.333 17.6695 0.030316 0.175167 -0.408559
2010-11-10 08:25:32 51°18.626 2°53.349 17.6677 0.030316 0.175176 -0.443383
2010-11-10 08:25:37 51°18.633 2°53.369 17.6368 0.030316 0.175176 -0.443383
2010-11-10 08:25:43 51°18.642 2°53.393 17.6231 0.03042 0.175782 -0.443383
2010-11-10 08:25:48 51°18.649 2°53.413 17.6442 0.03042 0.175782 -0.443383
2010-11-10 08:25:52 51°18.654 2°53.429 17.623 0.030316 0.175155 -0.443383
2010-11-10 08:25:56 51°18.66 2°53.446 17.6382 0.030316 0.175164 -0.443383
2010-11-10 08:26:03 51°18.669 2°53.474 17.6575 0.030316 0.175164 -0.408559
2010-11-10 08:26:08 51°18.677 2°53.494 17.6176 0.03042 0.17577 -0.443383
2010-11-10 08:26:12 51°18.681 2°53.512 17.6719 0.030316 0.175155 -0.408559
2010-11-10 08:26:18 51°18.691 2°53.535 17.6348 0.030316 0.175155 -0.408559
2010-11-10 08:26:23 51°18.697 2°53.557 17.6363 0.030316 0.175173 -0.443383
2010-11-10 08:26:27 51°18.702 2°53.574 17.6645 0.03042 0.175776 -0.443383
2010-11-10 08:26:32 51°18.709 2°53.594 17.6703 0.03042 0.175785 -0.443383
2010-11-10 08:26:37 51°18.716 2°53.614 17.6804 0.030316 0.17517 -0.408559
2010-11-10 08:26:43 51°18.724 2°53.639 17.6397 0.030316 0.175176 -0.443383
2010-11-10 08:26:47 51°18.729 2°53.657 17.6611 0.030316 0.175176 -0.443383
2010-11-10 08:26:52 51°18.736 2°53.677 17.6192 0.030316 0.175167 -0.443383
2010-11-10 08:26:57 51°18.741 2°53.699 17.6642 0.030316 0.175161 -0.408559
2010-11-10 08:27:03 51°18.751 2°53.723 17.6367 0.030316 0.175182 -0.408559
2010-11-10 08:27:08 51°18.757 2°53.744 17.648 0.030316 0.175167 -0.408559
2010-11-10 08:27:12 51°18.763 2°53.76 17.6599 0.03042 0.175785 -0.408559
2010-11-10 08:27:18 51°18.77 2°53.785 17.6549 0.03042 0.175785 -0.408559
2010-11-10 08:27:23 51°18.777 2°53.806 17.6509 0.030316 0.175185 -0.408559
2010-11-10 08:27:28 51°18.785 2°53.825 17.64 0.030316 0.175173 -0.408559
2010-11-10 08:27:32 51°18.79 2°53.841 17.6503 0.030316 0.175167 -0.443383
2010-11-10 08:27:37 51°18.797 2°53.862 17.6722 0.030316 0.175167 -0.443383
2010-11-10 08:27:43 51°18.805 2°53.887 17.6575 0.030316 0.175173 -0.408559
2010-11-10 08:27:48 51°18.812 2°53.908 17.6792 0.030316 0.175173 -0.408559
2010-11-10 08:27:52 51°18.818 2°53.924 17.6695 0.030316 0.175179 -0.443383
2010-11-10 08:27:57 51°18.825 2°53.944 17.6472 0.030316 0.175164 -0.443383
2010-11-10 08:28:03 51°18.833 2°53.969 17.6599 0.030316 0.175173 -0.443383
2010-11-10 08:28:08 51°18.84 2°53.991 17.6452 0.030316 0.175188 -0.443383
2010-11-10 08:28:12 51°18.844 2°54.008 17.6779 0.030316 0.175182 -0.443383
2010-11-10 08:28:16 51°18.85 2°54.024 17.6662 0.030316 0.175182 -0.443383
2010-11-10 08:28:23 51°18.859 2°54.053 17.6672 0.030316 0.175191 -0.408559
2010-11-10 08:28:28 51°18.866 2°54.072 17.6502 0.030316 0.175185 -0.408559
2010-11-10 08:28:32 51°18.871 2°54.089 17.6619 0.030316 0.175206 -0.443383
2010-11-10 08:28:38 51°18.879 2°54.114 17.6609 0.030316 0.175218 -0.408559
2010-11-10 08:28:43 51°18.887 2°54.134 17.6335 0.030316 0.175203 -0.408559
2010-11-10 08:28:48 51°18.893 2°54.155 17.6763 0.030316 0.175203 -0.408559
2010-11-10 08:28:52 51°18.899 2°54.171 17.6688 0.030316 0.175218 -0.443383
2010-11-10 08:28:57 51°18.905 2°54.191 17.6312 0.030316 0.175232 -0.443383
2010-11-10 08:29:03 51°18.912 2°54.216 17.6838 0.030316 0.175241 -0.443383
2010-11-10 08:29:08 51°18.92 2°54.236 17.6677 0.030316 0.175227 -0.408559
2010-11-10 08:29:13 51°18.926 2°54.257 17.6799 0.030316 0.175212 -0.443383
2010-11-10 08:29:17 51°18.932 2°54.272 17.68 0.030316 0.175212 -0.443383
2010-11-10 08:29:23 51°18.94 2°54.297 17.6812 0.030316 0.175227 -0.408559
2010-11-10 08:29:28 51°18.948 2°54.316 17.6714 0.030316 0.175218 -0.443383
2010-11-10 08:29:32 51°18.953 2°54.333 17.6901 0.030316 0.175238 -0.443383
2010-11-10 08:29:38 51°18.962 2°54.356 17.6649 0.030316 0.175238 -0.408559
2010-11-10 08:29:43 51°18.968 2°54.377 17.6521 0.030316 0.175244 -0.443383
2010-11-10 08:29:48 51°18.975 2°54.397 17.6664 0.030316 0.175244 -0.443383
2010-11-10 08:29:52 51°18.98 2°54.414 17.6695 0.030316 0.17525 -0.443383
2010-11-10 08:29:57 51°18.988 2°54.434 17.6732 0.030316 0.175241 -0.443383
2010-11-10 08:30:03 51°18.996 2°54.459 17.6517 0.030316 0.175238 -0.408559
2010-11-10 08:30:08 51°19.003 2°54.479 17.66 0.030316 0.175235 -0.478207
2010-11-10 08:30:12 51°19.008 2°54.497 17.6875 0.030316 0.175244 -0.408559
2010-11-10 08:30:17 51°19.015 2°54.517 17.6807 0.030316 0.175244 -0.408559
2010-11-10 08:30:23 51°19.022 2°54.542 17.6452 0.030316 0.175238 -0.443383
2010-11-10 08:30:28 51°19.027 2°54.564 17.677 0.030316 0.175244 -0.443383
2010-11-10 08:30:32 51°19.034 2°54.578 17.6547 0.030316 0.175271 -0.408559
2010-11-10 08:30:36 51°19.039 2°54.596 17.6765 0.030316 0.175247 -0.408559
2010-11-10 08:30:43 51°19.049 2°54.624 17.6873 0.030316 0.175247 -0.443383
2010-11-10 08:30:48 51°19.055 2°54.645 17.6818 0.030316 0.175247 -0.443383
2010-11-10 08:30:52 51°19.061 2°54.66 17.6511 0.030316 0.175244 -0.408559
2010-11-10 08:30:57 51°19.067 2°54.682 17.6971 0.030316 0.175244 -0.408559
2010-11-10 08:31:03 51°19.076 2°54.707 17.6695 0.030316 0.175244 -0.408559
2010-11-10 08:31:07 51°19.081 2°54.724 17.6873 0.030316 0.175247 -0.408559
2010-11-10 08:31:12 51°19.088 2°54.744 17.6846 0.030316 0.175247 -0.443383
2010-11-10 08:31:17 51°19.095 2°54.765 17.6748 0.030316 0.175247 -0.443383
2010-11-10 08:31:23 51°19.101 2°54.791 17.6954 0.030316 0.175238 -0.443383
2010-11-10 08:31:28 51°19.109 2°54.811 17.6771 0.030316 0.175244 -0.408559
2010-11-10 08:31:32 51°19.115 2°54.828 17.685 0.030316 0.175238 -0.408559
2010-11-10 08:31:38 51°19.123 2°54.853 17.6777 0.030316 0.17523 -0.443383
2010-11-10 08:31:43 51°19.13 2°54.873 17.6927 0.030316 0.17523 -0.408559
2010-11-10 08:31:48 51°19.137 2°54.894 17.6795 0.030316 0.17523 -0.408559
2010-11-10 08:31:52 51°19.143 2°54.911 17.6686 0.030316 0.175244 -0.408559
2010-11-10 08:31:58 51°19.151 2°54.936 17.7023 0.030316 0.175238 -0.443383
2010-11-10 08:32:03 51°19.158 2°54.956 17.6895 0.030316 0.175241 -0.408559
2010-11-10 08:32:08 51°19.165 2°54.977 17.7006 0.030316 0.175241 -0.443383
2010-11-10 08:32:12 51°19.171 2°54.993 17.6903 0.030316 0.17525 -0.443383
2010-11-10 08:32:17 51°19.178 2°55.014 17.6722 0.030316 0.17525 -0.443383
2010-11-10 08:32:23 51°19.186 2°55.038 17.6969 0.030316 0.175244 -0.408559
2010-11-10 08:32:28 51°19.194 2°55.059 17.6862 0.030316 0.175256 -0.408559
2010-11-10 08:32:32 51°19.198 2°55.077 17.7148 0.030316 0.175235 -0.408559
2010-11-10 08:32:37 51°19.207 2°55.096 17.688 0.030316 0.175265 -0.443383
2010-11-10 08:32:43 51°19.213 2°55.121 17.6879 0.030316 0.175265 -0.443383
2010-11-10 08:32:48 51°19.221 2°55.141 17.6911 0.030316 0.175265 -0.443383
2010-11-10 08:32:52 51°19.226 2°55.157 17.6676 0.030316 0.175274 -0.443383
2010-11-10 08:32:58 51°19.235 2°55.181 17.6543 0.030316 0.175277 -0.443383
2010-11-10 08:33:03 51°19.242 2°55.201 17.6939 0.030316 0.175298 -0.408559
2010-11-10 08:33:08 51°19.248 2°55.222 17.6567 0.030316 0.175301 -0.408559
2010-11-10 08:33:12 51°19.253 2°55.239 17.6969 0.030316 0.17523 -0.408559
2010-11-10 08:33:17 51°19.26 2°55.258 17.6527 0.030316 0.17523 -0.408559
2010-11-10 08:33:23 51°19.268 2°55.282 17.6763 0.030316 0.175191 -0.408559
2010-11-10 08:33:27 51°19.274 2°55.298 17.6592 0.030316 0.175227 -0.443383
2010-11-10 08:33:32 51°19.28 2°55.319 17.7007 0.030316 0.175209 -0.408559
2010-11-10 08:33:37 51°19.287 2°55.338 17.6591 0.030316 0.17523 -0.408559
2010-11-10 08:33:42 51°19.293 2°55.359 17.6918 0.030316 0.175227 -0.408559
2010-11-10 08:33:47 51°19.301 2°55.379 17.6906 0.030316 0.175227 -0.408559
2010-11-10 08:33:52 51°19.308 2°55.4 17.6595 0.030316 0.175247 -0.443383
2010-11-10 08:33:57 51°19.314 2°55.421 17.7001 0.030316 0.175253 -0.443383
2010-11-10 08:34:02 51°19.322 2°55.441 17.6317 0.030316 0.175265 -0.443383
2010-11-10 08:34:07 51°19.328 2°55.462 17.6906 0.030316 0.175259 -0.443383
2010-11-10 08:34:12 51°19.336 2°55.482 17.6339 0.030316 0.175298 -0.408559
2010-11-10 08:34:16 51°19.341 2°55.498 17.6834 0.030316 0.175298 -0.408559
2010-11-10 08:34:22 51°19.35 2°55.521 17.6846 0.030316 0.175286 -0.408559
2010-11-10 08:34:28 51°19.358 2°55.547 17.6961 0.030316 0.175316 -0.443383
2010-11-10 08:34:32 51°19.365 2°55.562 17.6773 0.030316 0.17531 -0.408559
2010-11-10 08:34:37 51°19.371 2°55.583 17.6623 0.030316 0.175316 -0.443383
2010-11-10 08:34:42 51°19.379 2°55.603 17.681 0.030316 0.17531 -0.443383
2010-11-10 08:34:48 51°19.386 2°55.628 17.6698 0.030316 0.17531 -0.443383
2010-11-10 08:34:52 51°19.392 2°55.645 17.6552 0.030316 0.175304 -0.443383
2010-11-10 08:34:57 51°19.399 2°55.667 17.663 0.030316 0.175301 -0.408559
2010-11-10 08:35:02 51°19.405 2°55.688 17.632 0.030316 0.175301 -0.443383
2010-11-10 08:35:08 51°19.412 2°55.713 17.6783 0.030316 0.175283 -0.443383
2010-11-10 08:35:12 51°19.417 2°55.73 17.6806 0.030316 0.175286 -0.408559
2010-11-10 08:35:16 51°19.421 2°55.748 17.6833 0.030316 0.175286 -0.408559
2010-11-10 08:35:22 51°19.428 2°55.773 17.6899 0.030316 0.175319 -0.478207
2010-11-10 08:35:28 51°19.435 2°55.8 17.6412 0.030316 0.175319 -0.443383
2010-11-10 08:35:32 51°19.438 2°55.819 17.6758 0.030316 0.175348 -0.443383
2010-11-10 08:35:36 51°19.444 2°55.835 17.6495 0.030316 0.175345 -0.408559
2010-11-10 08:35:42 51°19.449 2°55.863 17.6809 0.030316 0.175334 -0.443383
2010-11-10 08:35:47 51°19.455 2°55.884 17.6653 0.030316 0.175334 -0.443383
2010-11-10 08:35:52 51°19.46 2°55.906 17.6763 0.030316 0.175319 -0.443383
2010-11-10 08:35:57 51°19.465 2°55.928 17.676 0.030316 0.175307 -0.478207
2010-11-10 08:36:02 51°19.47 2°55.951 17.6794 0.030212 0.174709 -0.443383
2010-11-10 08:36:08 51°19.477 2°55.977 17.6563 0.030316 0.175307 -0.408559
2010-11-10 08:36:12 51°19.479 2°55.996 17.6614 0.030316 0.175313 -0.443383
2010-11-10 08:36:17 51°19.485 2°56.018 17.6563 0.030316 0.175313 -0.443383
2010-11-10 08:36:22 51°19.489 2°56.04 17.6635 0.030316 0.175313 -0.443383
2010-11-10 08:36:28 51°19.496 2°56.067 17.699 0.030316 0.175331 -0.443383
2010-11-10 08:36:32 51°19.499 2°56.085 17.6916 0.030316 0.175325 -0.408559
2010-11-10 08:36:37 51°19.504 2°56.107 17.6644 0.030316 0.175339 -0.443383
2010-11-10 08:36:43 51°19.509 2°56.136 17.7034 0.030316 0.175337 -0.443383
2010-11-10 08:36:47 51°19.515 2°56.153 17.6731 0.030316 0.175337 -0.443383
2010-11-10 08:36:52 51°19.518 2°56.176 17.6899 0.030212 0.174736 -0.443383
2010-11-10 08:36:56 51°19.523 2°56.193 17.6991 0.030316 0.175354 -0.408559
2010-11-10 08:37:02 51°19.53 2°56.22 17.6756 0.030316 0.17536 -0.408559
2010-11-10 08:37:08 51°19.537 2°56.246 17.6739 0.030316 0.175357 -0.443383
2010-11-10 08:37:12 51°19.541 2°56.264 17.7053 0.030316 0.175351 -0.408559
2010-11-10 08:37:16 51°19.546 2°56.282 17.6773 0.030316 0.175351 -0.408559
2010-11-10 08:37:22 51°19.551 2°56.309 17.6964 0.030316 0.175357 -0.408559
2010-11-10 08:37:28 51°19.558 2°56.335 17.6946 0.030316 0.175354 -0.408559
2010-11-10 08:37:32 51°19.562 2°56.352 17.709 0.030316 0.175357 -0.408559
2010-11-10 08:37:37 51°19.567 2°56.375 17.6959 0.030316 0.175363 -0.443383
2010-11-10 08:37:42 51°19.573 2°56.397 17.6711 0.030316 0.175375 -0.443383
2010-11-10 08:37:48 51°19.578 2°56.424 17.705 0.030316 0.175375 -0.443383
2010-11-10 08:37:52 51°19.583 2°56.44 17.6831 0.030316 0.175387 -0.408559
2010-11-10 08:37:57 51°19.587 2°56.463 17.7101 0.030212 0.174763 -0.408559
2010-11-10 08:38:02 51°19.594 2°56.484 17.7065 0.030316 0.175384 -0.443383
2010-11-10 08:38:08 51°19.599 2°56.511 17.6966 0.030316 0.175381 -0.408559
2010-11-10 08:38:12 51°19.604 2°56.528 17.7161 0.030316 0.175387 -0.408559
2010-11-10 08:38:17 51°19.61 2°56.549 17.6977 0.030316 0.175387 -0.408559
2010-11-10 08:38:23 51°19.615 2°56.576 17.698 0.030316 0.175384 -0.443383
2010-11-10 08:38:27 51°19.62 2°56.593 17.6769 0.030316 0.175375 -0.443383
2010-11-10 08:38:32 51°19.625 2°56.615 17.6977 0.030212 0.174757 -0.408559
2010-11-10 08:38:36 51°19.63 2°56.632 17.6871 0.030316 0.175378 -0.443383
2010-11-10 08:38:42 51°19.636 2°56.657 17.6943 0.030316 0.175363 -0.443383
2010-11-10 08:38:48 51°19.643 2°56.684 17.707 0.030316 0.175363 -0.443383
2010-11-10 08:38:52 51°19.648 2°56.7 17.6865 0.030316 0.175387 -0.443383
2010-11-10 08:38:56 51°19.652 2°56.718 17.7012 0.030316 0.175369 -0.408559
2010-11-10 08:39:02 51°19.658 2°56.744 17.6921 0.030316 0.175369 -0.443383
2010-11-10 08:39:08 51°19.664 2°56.771 17.6875 0.030212 0.174766 -0.443383
2010-11-10 08:39:12 51°19.668 2°56.788 17.6952 0.030316 0.175375 -0.443383
2010-11-10 08:39:17 51°19.674 2°56.81 17.7107 0.030316 0.175375 -0.443383
2010-11-10 08:39:22 51°19.679 2°56.832 17.7003 0.030316 0.175375 -0.443383
2010-11-10 08:39:28 51°19.685 2°56.859 17.7098 0.030316 0.175372 -0.443383
2010-11-10 08:39:32 51°19.689 2°56.877 17.7025 0.030316 0.17539 -0.443383
2010-11-10 08:39:37 51°19.695 2°56.899 17.7053 0.030212 0.174778 -0.408559
2010-11-10 08:39:42 51°19.699 2°56.921 17.6975 0.030316 0.175423 -0.408559
2010-11-10 08:39:48 51°19.706 2°56.947 17.7158 0.030316 0.175423 -0.408559
2010-11-10 08:39:52 51°19.71 2°56.964 17.7016 0.030316 0.175426 -0.443383
2010-11-10 08:39:56 51°19.714 2°56.982 17.7039 0.030212 0.174804 -0.443383
2010-11-10 08:40:02 51°19.72 2°57.009 17.7123 0.030316 0.175408 -0.443383
2010-11-10 08:40:08 51°19.727 2°57.035 17.6961 0.030316 0.175414 -0.408559
2010-11-10 08:40:12 51°19.731 2°57.053 17.6792 0.030316 0.175426 -0.408559
2010-11-10 08:40:16 51°19.735 2°57.071 17.6985 0.030316 0.175426 -0.408559
2010-11-10 08:40:22 51°19.742 2°57.097 17.7086 0.030212 0.174798 -0.443383
2010-11-10 08:40:27 51°19.747 2°57.118 17.7098 0.030212 0.174792 -0.443383
2010-11-10 08:40:32 51°19.752 2°57.14 17.709 0.030316 0.175399 -0.408559
2010-11-10 08:40:37 51°19.758 2°57.162 17.693 0.030212 0.17481 -0.408559
2010-11-10 08:40:42 51°19.762 2°57.184 17.7073 0.030316 0.175417 -0.443383
2010-11-10 08:40:48 51°19.768 2°57.211 17.7113 0.030316 0.175417 -0.443383
2010-11-10 08:40:52 51°19.773 2°57.229 17.7106 0.030212 0.174804 -0.443383
2010-11-10 08:40:57 51°19.779 2°57.25 17.6713 0.030212 0.174825 -0.408559
2010-11-10 08:41:03 51°19.785 2°57.276 17.6956 0.030212 0.174828 -0.443383
2010-11-10 08:41:07 51°19.79 2°57.293 17.7134 0.030212 0.174849 -0.443383
2010-11-10 08:41:12 51°19.796 2°57.313 17.7025 0.030212 0.17484 -0.443383
2010-11-10 08:41:16 51°19.8 2°57.331 17.717 0.030212 0.17484 -0.443383
2010-11-10 08:41:22 51°19.809 2°57.355 17.6892 0.030316 0.175456 -0.408559
2010-11-10 08:41:28 51°19.815 2°57.381 17.7106 0.030212 0.174852 -0.443383
2010-11-10 08:41:32 51°19.82 2°57.399 17.7181 0.030316 0.175459 -0.408559
2010-11-10 08:41:36 51°19.825 2°57.415 17.6873 0.030316 0.175447 -0.408559
2010-11-10 08:41:42 51°19.83 2°57.441 17.7285 0.030212 0.174822 -0.443383
2010-11-10 08:41:48 51°19.837 2°57.467 17.6932 0.030212 0.174822 -0.443383
2010-11-10 08:41:52 51°19.841 2°57.485 17.7145 0.030212 0.174813 -0.408559
2010-11-10 08:41:56 51°19.846 2°57.502 17.7044 0.030212 0.174804 -0.443383
2010-11-10 08:42:02 51°19.852 2°57.529 17.718 0.030212 0.174813 -0.408559
2010-11-10 08:42:08 51°19.859 2°57.554 17.6481 0.030212 0.174822 -0.443383
2010-11-10 08:42:12 51°19.861 2°57.572 17.7316 0.030316 0.175438 -0.443383
2010-11-10 08:42:17 51°19.868 2°57.592 17.713 0.030316 0.175438 -0.443383
2010-11-10 08:42:22 51°19.875 2°57.614 17.6726 0.030212 0.174831 -0.443383
2010-11-10 08:42:27 51°19.88 2°57.636 17.7134 0.030212 0.174819 -0.443383
2010-11-10 08:42:32 51°19.885 2°57.657 17.7233 0.030316 0.175432 -0.408559
2010-11-10 08:42:37 51°19.891 2°57.678 17.6688 0.030316 0.175423 -0.443383
2010-11-10 08:42:43 51°19.896 2°57.705 17.7161 0.030316 0.175432 -0.443383
2010-11-10 08:42:47 51°19.9 2°57.722 17.6611 0.030316 0.175432 -0.443383
2010-11-10 08:42:52 51°19.904 2°57.745 17.6866 0.030212 0.174828 -0.443383
2010-11-10 08:42:56 51°19.908 2°57.762 17.6888 0.030212 0.174864 -0.408559
2010-11-10 08:43:02 51°19.915 2°57.787 17.7158 0.030212 0.174858 -0.443383
2010-11-10 08:43:08 51°19.922 2°57.813 17.6987 0.030316 0.17547 -0.443383
2010-11-10 08:43:12 51°19.925 2°57.831 17.7195 0.030212 0.17487 -0.443383
2010-11-10 08:43:16 51°19.931 2°57.848 17.6685 0.030212 0.17487 -0.443383
2010-11-10 08:43:22 51°19.935 2°57.876 17.7178 0.030212 0.174867 -0.408559
2010-11-10 08:43:28 51°19.943 2°57.9 17.6884 0.030316 0.1755 -0.443383
2010-11-10 08:43:32 51°19.946 2°57.918 17.7302 0.030212 0.174887 -0.443383
2010-11-10 08:43:37 51°19.952 2°57.938 17.6825 0.030316 0.175509 -0.408559
2010-11-10 08:43:42 51°19.956 2°57.962 17.7284 0.030316 0.175506 -0.408559
2010-11-10 08:43:48 51°19.964 2°57.986 17.7065 0.030316 0.175506 -0.408559
2010-11-10 08:43:52 51°19.968 2°58.004 17.7267 0.030212 0.174917 -0.408559
2010-11-10 08:43:57 51°19.973 2°58.025 17.6826 0.030212 0.174926 -0.443383
2010-11-10 08:44:02 51°19.977 2°58.047 17.7105 0.030212 0.174899 -0.443383
2010-11-10 08:44:08 51°19.985 2°58.072 17.7104 0.030316 0.175527 -0.443383
2010-11-10 08:44:12 51°19.989 2°58.089 17.7237 0.030212 0.174905 -0.478207
2010-11-10 08:44:17 51°19.995 2°58.111 17.7092 0.030212 0.174905 -0.478207
2010-11-10 08:44:22 51°20 2°58.132 17.7026 0.030316 0.175503 -0.443383
2010-11-10 08:44:28 51°20.006 2°58.158 17.7166 0.030212 0.17489 -0.478207
2010-11-10 08:44:32 51°20.01 2°58.176 17.6901 0.030212 0.174878 -0.443383
2010-11-10 08:44:36 51°20.014 2°58.194 17.6855 0.030212 0.174881 -0.443383
2010-11-10 08:44:42 51°20.019 2°58.221 17.6948 0.030316 0.175491 -0.443383
2010-11-10 08:44:48 51°20.025 2°58.248 17.718 0.030316 0.175491 -0.443383
2010-11-10 08:44:52 51°20.031 2°58.265 17.7083 0.030212 0.174878 -0.443383
2010-11-10 08:44:56 51°20.033 2°58.284 17.7266 0.030212 0.174878 -0.478207
2010-11-10 08:45:02 51°20.04 2°58.31 17.709 0.030212 0.174887 -0.443383
2010-11-10 08:45:07 51°20.045 2°58.333 17.7407 0.030212 0.174899 -0.443383
2010-11-10 08:45:12 51°20.051 2°58.354 17.6985 0.030212 0.174908 -0.408559
2010-11-10 08:45:17 51°20.054 2°58.377 17.7425 0.030212 0.174908 -0.408559
2010-11-10 08:45:22 51°20.061 2°58.398 17.6861 0.030316 0.175527 -0.443383
2010-11-10 08:45:28 51°20.065 2°58.425 17.7191 0.030212 0.174905 -0.443383
2010-11-10 08:45:32 51°20.07 2°58.443 17.6685 0.030212 0.174914 -0.443383
2010-11-10 08:45:37 51°20.075 2°58.466 17.6546 0.030212 0.174908 -0.443383
2010-11-10 08:45:43 51°20.08 2°58.492 17.7099 0.030212 0.174911 -0.443383
2010-11-10 08:45:47 51°20.085 2°58.509 17.7326 0.030212 0.174911 -0.443383
2010-11-10 08:45:52 51°20.091 2°58.53 17.703 0.030212 0.174926 -0.408559
2010-11-10 08:45:56 51°20.095 2°58.548 17.7201 0.030212 0.174908 -0.408559
2010-11-10 08:46:02 51°20.102 2°58.573 17.6775 0.030212 0.174905 -0.408559
2010-11-10 08:46:08 51°20.107 2°58.6 17.7153 0.030212 0.174902 -0.443383
2010-11-10 08:46:12 51°20.113 2°58.617 17.7088 0.030212 0.174905 -0.443383
2010-11-10 08:46:16 51°20.115 2°58.636 17.7252 0.030212 0.174905 -0.443383
2010-11-10 08:46:22 51°20.123 2°58.66 17.702 0.030212 0.174926 -0.443383
2010-11-10 08:46:28 51°20.128 2°58.688 17.7142 0.030212 0.174911 -0.443383
2010-11-10 08:46:32 51°20.133 2°58.705 17.7152 0.030316 0.17553 -0.443383
2010-11-10 08:46:37 51°20.138 2°58.727 17.7044 0.030212 0.174917 -0.443383
2010-11-10 08:46:42 51°20.143 2°58.749 17.7089 0.030212 0.174923 -0.408559
2010-11-10 08:46:48 51°20.15 2°58.775 17.7061 0.030212 0.174923 -0.408559
2010-11-10 08:46:52 51°20.153 2°58.793 17.7307 0.030212 0.174908 -0.443383
2010-11-10 08:46:57 51°20.159 2°58.814 17.7059 0.030212 0.174914 -0.408559
2010-11-10 08:47:02 51°20.163 2°58.837 17.7326 0.030212 0.174911 -0.478207
2010-11-10 08:47:08 51°20.171 2°58.863 17.6883 0.030212 0.174926 -0.443383
2010-11-10 08:47:12 51°20.173 2°58.882 17.7303 0.030212 0.174929 -0.443383
2010-11-10 08:47:17 51°20.18 2°58.902 17.7142 0.030212 0.174929 -0.443383
2010-11-10 08:47:23 51°20.185 2°58.93 17.7198 0.030212 0.174926 -0.408559
2010-11-10 08:47:27 51°20.191 2°58.947 17.7271 0.030212 0.174947 -0.408559
2010-11-10 08:47:32 51°20.195 2°58.969 17.6935 0.030212 0.174941 -0.443383
2010-11-10 08:47:36 51°20.198 2°58.987 17.7151 0.030212 0.174962 -0.443383
2010-11-10 08:47:42 51°20.205 2°59.013 17.7241 0.030212 0.174968 -0.443383
2010-11-10 08:47:48 51°20.213 2°59.039 17.6912 0.030212 0.174968 -0.443383
2010-11-10 08:47:52 51°20.215 2°59.058 17.7205 0.030212 0.174968 -0.443383
2010-11-10 08:47:57 51°20.222 2°59.079 17.7292 0.030212 0.174982 -0.408559
2010-11-10 08:48:02 51°20.228 2°59.1 17.7156 0.030212 0.174977 -0.408559
2010-11-10 08:48:08 51°20.234 2°59.127 17.7029 0.030212 0.174962 -0.443383
2010-11-10 08:48:12 51°20.238 2°59.144 17.75 0.030212 0.174971 -0.443383
2010-11-10 08:48:17 51°20.247 2°59.164 17.7057 0.030212 0.174971 -0.443383
2010-11-10 08:48:22 51°20.25 2°59.187 17.7368 0.030212 0.174962 -0.443383
2010-11-10 08:48:28 51°20.259 2°59.212 17.7267 0.030212 0.174979 -0.408559
2010-11-10 08:48:32 51°20.263 2°59.23 17.7094 0.030212 0.174974 -0.408559
2010-11-10 08:48:37 51°20.269 2°59.251 17.7405 0.030212 0.174979 -0.443383
2010-11-10 08:48:42 51°20.275 2°59.273 17.7172 0.030212 0.174991 -0.443383
2010-11-10 08:48:47 51°20.28 2°59.295 17.7461 0.030212 0.174991 -0.443383
2010-11-10 08:48:52 51°20.286 2°59.317 17.7462 0.030212 0.174982 -0.443383
2010-11-10 08:48:56 51°20.29 2°59.334 17.709 0.030212 0.174968 -0.443383
2010-11-10 08:49:02 51°20.296 2°59.36 17.7432 0.030212 0.174971 -0.408559
2010-11-10 08:49:08 51°20.303 2°59.386 17.7321 0.030212 0.174977 -0.443383
2010-11-10 08:49:12 51°20.307 2°59.404 17.7449 0.030212 0.174977 -0.443383
2010-11-10 08:49:16 51°20.312 2°59.422 17.7062 0.030212 0.174977 -0.443383
2010-11-10 08:49:22 51°20.317 2°59.449 17.7551 0.030212 0.174982 -0.408559
2010-11-10 08:49:27 51°20.324 2°59.47 17.7303 0.030212 0.175009 -0.408559
2010-11-10 08:49:32 51°20.328 2°59.492 17.7288 0.030212 0.174985 -0.443383
2010-11-10 08:49:37 51°20.333 2°59.514 17.7513 0.030212 0.174994 -0.443383
2010-11-10 08:49:42 51°20.339 2°59.535 17.7537 0.030212 0.174997 -0.443383
2010-11-10 08:49:48 51°20.346 2°59.561 17.6951 0.030212 0.174997 -0.443383
2010-11-10 08:49:52 51°20.348 2°59.58 17.746 0.030212 0.174982 -0.443383
2010-11-10 08:49:57 51°20.355 2°59.6 17.7433 0.030212 0.175006 -0.443383
2010-11-10 08:50:03 51°20.361 2°59.626 17.731 0.030212 0.174994 -0.408559
2010-11-10 08:50:07 51°20.366 2°59.643 17.7237 0.030212 0.174997 -0.443383
2010-11-10 08:50:12 51°20.37 2°59.665 17.7514 0.030212 0.174985 -0.443383
2010-11-10 08:50:17 51°20.376 2°59.687 17.7224 0.030212 0.174985 -0.443383
2010-11-10 08:50:22 51°20.381 2°59.709 17.7395 0.030212 0.174985 -0.408559
2010-11-10 08:50:28 51°20.388 2°59.734 17.7382 0.030212 0.175003 -0.408559
2010-11-10 08:50:32 51°20.391 2°59.753 17.7466 0.030212 0.174997 -0.443383
2010-11-10 08:50:36 51°20.397 2°59.769 17.7593 0.030212 0.175018 -0.443383
2010-11-10 08:50:42 51°20.402 2°59.796 17.7166 0.030212 0.175018 -0.408559
2010-11-10 08:50:48 51°20.409 2°59.822 17.7593 0.030212 0.175018 -0.408559
2010-11-10 08:50:52 51°20.414 2°59.839 17.7609 0.030212 0.175015 -0.443383
2010-11-10 08:50:56 51°20.419 2°59.857 17.7191 0.030212 0.175033 -0.443383
2010-11-10 08:51:02 51°20.424 2°59.884 17.7548 0.030212 0.17503 -0.443383
2010-11-10 08:51:08 51°20.432 2°59.908 17.7602 0.030212 0.175048 -0.443383
2010-11-10 08:51:12 51°20.436 2°59.925 17.7378 0.030212 0.175066 -0.443383
2010-11-10 08:51:17 51°20.443 2°59.947 17.7635 0.030212 0.175066 -0.443383
2010-11-10 08:51:22 51°20.45 2°59.967 17.7311 0.030212 0.175057 -0.443383
2010-11-10 08:51:27 51°20.454 2°59.988 17.7628 0.030212 0.175051 -0.443383
2010-11-10 08:51:32 51°20.461 3°0.009 17.7503 0.030212 0.175045 -0.443383
2010-11-10 08:51:37 51°20.467 3°0.03 17.7455 0.030212 0.175048 -0.408559
2010-11-10 08:51:43 51°20.473 3°0.056 17.7502 0.030212 0.175045 -0.408559
2010-11-10 08:51:47 51°20.479 3°0.072 17.7037 0.030212 0.175045 -0.408559
2010-11-10 08:51:52 51°20.483 3°0.095 17.75 0.030212 0.175027 -0.408559
2010-11-10 08:51:56 51°20.489 3°0.111 17.7197 0.030212 0.175048 -0.443383
2010-11-10 08:52:02 51°20.495 3°0.137 17.7523 0.030212 0.175036 -0.443383
2010-11-10 08:52:08 51°20.502 3°0.162 17.7508 0.030212 0.175039 -0.443383
2010-11-10 08:52:12 51°20.506 3°0.179 17.7321 0.030212 0.175054 -0.443383
2010-11-10 08:52:16 51°20.51 3°0.197 17.7584 0.030212 0.175054 -0.443383
2010-11-10 08:52:22 51°20.518 3°0.222 17.7302 0.030212 0.175054 -0.443383
2010-11-10 08:52:28 51°20.523 3°0.249 17.7591 0.030212 0.175057 -0.443383
2010-11-10 08:52:32 51°20.528 3°0.266 17.7484 0.030212 0.175069 -0.443383
2010-11-10 08:52:37 51°20.533 3°0.289 17.7671 0.030212 0.175066 -0.443383
2010-11-10 08:52:42 51°20.538 3°0.31 17.7336 0.030212 0.175069 -0.443383
2010-11-10 08:52:48 51°20.544 3°0.338 17.7675 0.030212 0.175069 -0.443383
2010-11-10 08:52:52 51°20.549 3°0.354 17.7588 0.030212 0.175066 -0.408559
2010-11-10 08:52:57 51°20.554 3°0.377 17.7615 0.030212 0.175063 -0.443383
2010-11-10 08:53:02 51°20.56 3°0.398 17.739 0.030212 0.175072 -0.443383
2010-11-10 08:53:07 51°20.565 3°0.42 17.7597 0.030212 0.175066 -0.443383
2010-11-10 08:53:12 51°20.571 3°0.441 17.7448 0.030212 0.175078 -0.408559
2010-11-10 08:53:16 51°20.575 3°0.459 17.7634 0.030212 0.175078 -0.408559
2010-11-10 08:53:22 51°20.583 3°0.485 17.7549 0.030212 0.175072 -0.408559
2010-11-10 08:53:28 51°20.588 3°0.511 17.7516 0.030108 0.174473 -0.408559
2010-11-10 08:53:32 51°20.592 3°0.529 17.7648 0.030212 0.17509 -0.408559
2010-11-10 08:53:36 51°20.597 3°0.546 17.749 0.030212 0.175096 -0.408559
2010-11-10 08:53:42 51°20.603 3°0.573 17.7697 0.030212 0.17509 -0.408559
2010-11-10 08:53:48 51°20.61 3°0.599 17.7733 0.030212 0.17509 -0.408559
2010-11-10 08:53:52 51°20.614 3°0.616 17.7425 0.030108 0.174491 -0.443383
2010-11-10 08:53:56 51°20.618 3°0.634 17.7738 0.030212 0.175096 -0.443383
2010-11-10 08:54:02 51°20.626 3°0.659 17.7456 0.030212 0.175102 -0.408559
2010-11-10 08:54:07 51°20.629 3°0.682 17.7932 0.030212 0.175093 -0.443383
2010-11-10 08:54:12 51°20.636 3°0.703 17.7697 0.030212 0.175099 -0.443383
2010-11-10 08:54:17 51°20.64 3°0.726 17.7893 0.030212 0.175099 -0.443383
2010-11-10 08:54:22 51°20.647 3°0.747 17.7548 0.030212 0.175096 -0.408559
2010-11-10 08:54:28 51°20.652 3°0.774 17.7741 0.030212 0.175084 -0.408559
2010-11-10 08:54:32 51°20.657 3°0.791 17.782 0.030212 0.175099 -0.443383
2010-11-10 08:54:37 51°20.663 3°0.812 17.779 0.030212 0.175093 -0.478207
2010-11-10 08:54:43 51°20.667 3°0.838 17.7932 0.030108 0.174509 -0.408559
2010-11-10 08:54:47 51°20.673 3°0.855 17.7875 0.030108 0.174509 -0.408559
2010-11-10 08:54:52 51°20.678 3°0.876 17.7791 0.030212 0.175119 -0.408559
2010-11-10 08:54:56 51°20.682 3°0.893 17.7632 0.030212 0.17511 -0.408559
2010-11-10 08:55:02 51°20.688 3°0.919 17.7902 0.030212 0.175107 -0.443383
2010-11-10 08:55:08 51°20.695 3°0.945 17.7715 0.030108 0.174494 -0.408559
2010-11-10 08:55:12 51°20.698 3°0.963 17.7629 0.030108 0.174488 -0.443383
2010-11-10 08:55:16 51°20.703 3°0.979 17.7642 0.030108 0.174488 -0.443383
2010-11-10 08:55:22 51°20.709 3°1.006 17.7568 0.030108 0.174497 -0.443383
2010-11-10 08:55:28 51°20.716 3°1.031 17.7425 0.030212 0.175119 -0.408559
2010-11-10 08:55:32 51°20.721 3°1.047 17.766 0.030212 0.175128 -0.408559
2010-11-10 08:55:37 51°20.727 3°1.069 17.7867 0.030212 0.17511 -0.443383
2010-11-10 08:55:42 51°20.734 3°1.088 17.6906 0.030212 0.175102 -0.408559
2010-11-10 08:55:48 51°20.738 3°1.115 17.7764 0.030212 0.175102 -0.408559
2010-11-10 08:55:52 51°20.745 3°1.13 17.7652 0.030212 0.175099 -0.443383
2010-11-10 08:55:57 51°20.751 3°1.151 17.7688 0.030212 0.175116 -0.443383
2010-11-10 08:56:02 51°20.758 3°1.17 17.7459 0.030212 0.175122 -0.408559
2010-11-10 08:56:08 51°20.765 3°1.196 17.7896 0.030212 0.175119 -0.408559
2010-11-10 08:56:12 51°20.77 3°1.212 17.7606 0.030108 0.174518 -0.408559
2010-11-10 08:56:17 51°20.775 3°1.233 17.7586 0.030108 0.174518 -0.408559
2010-11-10 08:56:23 51°20.782 3°1.259 17.7541 0.030212 0.175122 -0.443383
2010-11-10 08:56:27 51°20.787 3°1.276 17.7685 0.030212 0.175125 -0.443383
2010-11-10 08:56:32 51°20.792 3°1.297 17.7752 0.030212 0.17511 -0.443383
2010-11-10 08:56:36 51°20.797 3°1.313 17.7736 0.030108 0.174509 -0.408559
2010-11-10 08:56:42 51°20.803 3°1.34 17.7788 0.030212 0.175131 -0.408559
2010-11-10 08:56:48 51°20.81 3°1.366 17.7169 0.030212 0.175131 -0.408559
2010-11-10 08:56:52 51°20.812 3°1.384 17.7622 0.030212 0.175113 -0.408559
2010-11-10 08:56:56 51°20.816 3°1.401 17.7634 0.030212 0.175137 -0.443383
2010-11-10 08:57:02 51°20.823 3°1.426 17.7716 0.030212 0.175131 -0.408559
2010-11-10 08:57:08 51°20.829 3°1.452 17.7339 0.030212 0.175125 -0.408559
2010-11-10 08:57:12 51°20.832 3°1.47 17.7493 0.030212 0.175122 -0.408559
2010-11-10 08:57:17 51°20.838 3°1.492 17.75 0.030212 0.175122 -0.408559
2010-11-10 08:57:23 51°20.843 3°1.519 17.7436 0.030212 0.175131 -0.443383
2010-11-10 08:57:28 51°20.847 3°1.541 17.7666 0.030212 0.175134 -0.408559
2010-11-10 08:57:32 51°20.851 3°1.558 17.7359 0.030212 0.17514 -0.408559
2010-11-10 08:57:37 51°20.856 3°1.581 17.778 0.030108 0.174535 -0.408559
2010-11-10 08:57:42 51°20.861 3°1.603 17.7584 0.030212 0.175158 -0.408559
2010-11-10 08:57:47 51°20.865 3°1.625 17.7223 0.030212 0.175158 -0.408559
2010-11-10 08:57:52 51°20.869 3°1.647 17.7826 0.030108 0.174541 -0.443383
2010-11-10 08:57:56 51°20.874 3°1.665 17.7784 0.030212 0.175176 -0.408559
2010-11-10 08:58:02 51°20.881 3°1.691 17.7581 0.030108 0.174556 -0.408559
2010-11-10 08:58:08 51°20.886 3°1.717 17.7529 0.030212 0.175164 -0.408559
2010-11-10 08:58:12 51°20.892 3°1.734 17.7678 0.030212 0.175173 -0.408559
2010-11-10 08:58:16 51°20.896 3°1.752 17.7487 0.030212 0.175173 -0.408559
2010-11-10 08:58:22 51°20.902 3°1.778 17.7619 0.030212 0.175167 -0.408559
2010-11-10 08:58:27 51°20.906 3°1.799 17.7843 0.030108 0.174559 -0.408559
2010-11-10 08:58:32 51°20.913 3°1.821 17.789 0.030212 0.175179 -0.443383
2010-11-10 08:58:37 51°20.918 3°1.843 17.7669 0.030212 0.175173 -0.408559
2010-11-10 08:58:42 51°20.923 3°1.865 17.7754 0.030108 0.174553 -0.408559
2010-11-10 08:58:48 51°20.931 3°1.89 17.7661 0.030108 0.174553 -0.408559
2010-11-10 08:58:52 51°20.935 3°1.908 17.7747 0.030212 0.175197 -0.443383
2010-11-10 08:58:57 51°20.94 3°1.93 17.7884 0.030108 0.174589 -0.408559
2010-11-10 08:59:02 51°20.946 3°1.951 17.7753 0.030212 0.175197 -0.408559
2010-11-10 08:59:08 51°20.952 3°1.978 17.7945 0.030212 0.175212 -0.443383
2010-11-10 08:59:12 51°20.956 3°1.995 17.7837 0.030108 0.174598 -0.443383
2010-11-10 08:59:17 51°20.961 3°2.017 17.7706 0.030108 0.174598 -0.443383
2010-11-10 08:59:23 51°20.968 3°2.043 17.7816 0.030108 0.174574 -0.408559
2010-11-10 08:59:27 51°20.972 3°2.06 17.7875 0.030212 0.175185 -0.443383
2010-11-10 08:59:32 51°20.977 3°2.083 17.7982 0.030212 0.175179 -0.408559
2010-11-10 08:59:36 51°20.982 3°2.1 17.7771 0.030108 0.17458 -0.408559
2010-11-10 08:59:42 51°20.988 3°2.127 17.7947 0.030108 0.17458 -0.408559
2010-11-10 08:59:48 51°20.994 3°2.155 17.7856 0.030108 0.17458 -0.408559
2010-11-10 08:59:52 51°20.999 3°2.172 17.7864 0.030108 0.174571 -0.408559
2010-11-10 08:59:56 51°21.003 3°2.19 17.7959 0.030108 0.174574 -0.443383
2010-11-10 09:00:02 51°21.009 3°2.216 17.7678 0.030108 0.17458 -0.443383
2010-11-10 09:00:08 51°21.015 3°2.244 17.7623 0.030108 0.174589 -0.443383
2010-11-10 09:00:12 51°21.019 3°2.263 17.8096 0.030108 0.17458 -0.443383
2010-11-10 09:00:17 51°21.026 3°2.285 17.7747 0.030108 0.17458 -0.443383
2010-11-10 09:00:22 51°21.029 3°2.307 17.7788 0.030212 0.1752 -0.408559
2010-11-10 09:00:27 51°21.034 3°2.33 17.7875 0.030212 0.175203 -0.408559
2010-11-10 09:00:32 51°21.04 3°2.352 17.7918 0.030212 0.175212 -0.408559
2010-11-10 09:00:37 51°21.045 3°2.374 17.7789 0.030108 0.174601 -0.408559
2010-11-10 09:00:42 51°21.051 3°2.396 17.7992 0.030108 0.174613 -0.408559
2010-11-10 09:00:47 51°21.057 3°2.419 17.8088 0.030108 0.174613 -0.408559
2010-11-10 09:00:52 51°21.063 3°2.441 17.7923 0.030212 0.175227 -0.408559
2010-11-10 09:00:56 51°21.066 3°2.459 17.7866 0.030108 0.174607 -0.443383
2010-11-10 09:01:02 51°21.074 3°2.485 17.8013 0.030108 0.174619 -0.408559
2010-11-10 09:01:08 51°21.081 3°2.512 17.7873 0.030212 0.175221 -0.408559
2010-11-10 09:01:12 51°21.085 3°2.53 17.8171 0.030212 0.175224 -0.408559
2010-11-10 09:01:16 51°21.09 3°2.547 17.7802 0.030212 0.175224 -0.408559
2010-11-10 09:01:22 51°21.096 3°2.574 17.8087 0.030108 0.174604 -0.408559
2010-11-10 09:01:28 51°21.104 3°2.6 17.7966 0.030108 0.174607 -0.408559
2010-11-10 09:01:32 51°21.109 3°2.617 17.7829 0.030108 0.17461 -0.408559
2010-11-10 09:01:36 51°21.113 3°2.635 17.803 0.030108 0.174601 -0.408559
2010-11-10 09:01:42 51°21.121 3°2.661 17.798 0.030108 0.174607 -0.408559
2010-11-10 09:01:48 51°21.127 3°2.688 17.8033 0.030108 0.174607 -0.408559
2010-11-10 09:01:52 51°21.132 3°2.705 17.8103 0.030108 0.174598 -0.443383
2010-11-10 09:01:57 51°21.138 3°2.727 17.8079 0.030108 0.174604 -0.408559
2010-11-10 09:02:02 51°21.143 3°2.75 17.7993 0.030108 0.174604 -0.408559
2010-11-10 09:02:08 51°21.149 3°2.776 17.7936 0.030108 0.174604 -0.443383
2010-11-10 09:02:12 51°21.153 3°2.794 17.8019 0.030212 0.175218 -0.408559
2010-11-10 09:02:17 51°21.16 3°2.816 17.795 0.030212 0.175218 -0.408559
2010-11-10 09:02:22 51°21.165 3°2.839 17.8242 0.030108 0.17461 -0.408559
2010-11-10 09:02:28 51°21.173 3°2.865 17.7996 0.030108 0.174633 -0.443383
2010-11-10 09:02:32 51°21.177 3°2.883 17.8232 0.030108 0.174622 -0.443383
2010-11-10 09:02:36 51°21.182 3°2.901 17.8141 0.030108 0.174625 -0.408559
2010-11-10 09:02:42 51°21.189 3°2.928 17.8019 0.030108 0.174613 -0.408559
2010-11-10 09:02:48 51°21.195 3°2.955 17.8201 0.030108 0.174613 -0.408559
2010-11-10 09:02:52 51°21.201 3°2.972 17.8144 0.030108 0.174622 -0.408559
2010-11-10 09:02:56 51°21.206 3°2.989 17.82 0.030108 0.174613 -0.443383
2010-11-10 09:03:02 51°21.212 3°3.016 17.8182 0.030108 0.174604 -0.443383
2010-11-10 09:03:07 51°21.219 3°3.038 17.8195 0.030108 0.174607 -0.408559
2010-11-10 09:03:12 51°21.224 3°3.061 17.8252 0.030108 0.174619 -0.443383
2010-11-10 09:03:17 51°21.231 3°3.083 17.8162 0.030108 0.174619 -0.443383
2010-11-10 09:03:22 51°21.236 3°3.106 17.8293 0.030108 0.17461 -0.443383
2010-11-10 09:03:28 51°21.243 3°3.132 17.812 0.030108 0.174616 -0.408559
2010-11-10 09:03:32 51°21.246 3°3.15 17.8343 0.030108 0.174601 -0.408559
2010-11-10 09:03:37 51°21.254 3°3.172 17.807 0.030108 0.174619 -0.408559
2010-11-10 09:03:43 51°21.26 3°3.199 17.8149 0.030108 0.17461 -0.408559
2010-11-10 09:03:47 51°21.264 3°3.217 17.825 0.030108 0.17461 -0.408559
2010-11-10 09:03:52 51°21.27 3°3.239 17.8242 0.030108 0.17463 -0.443383
2010-11-10 09:03:56 51°21.274 3°3.258 17.8226 0.030108 0.174627 -0.408559
2010-11-10 09:04:02 51°21.281 3°3.285 17.8264 0.030108 0.174633 -0.443383
2010-11-10 09:04:08 51°21.287 3°3.312 17.8312 0.030108 0.174613 -0.443383
2010-11-10 09:04:12 51°21.292 3°3.329 17.8221 0.030108 0.174627 -0.408559
2010-11-10 09:04:16 51°21.296 3°3.347 17.8305 0.030108 0.174627 -0.408559
2010-11-10 09:04:22 51°21.304 3°3.374 17.8116 0.030108 0.174622 -0.408559
2010-11-10 09:04:28 51°21.309 3°3.401 17.8249 0.030108 0.174627 -0.443383
2010-11-10 09:04:32 51°21.315 3°3.419 17.8351 0.030108 0.174648 -0.408559
2010-11-10 09:04:37 51°21.32 3°3.442 17.8351 0.030108 0.174639 -0.408559
2010-11-10 09:04:42 51°21.326 3°3.464 17.8397 0.030212 0.175254 -0.478207
2010-11-10 09:04:48 51°21.333 3°3.491 17.8255 0.030212 0.175254 -0.478207
2010-11-10 09:04:52 51°21.337 3°3.509 17.8445 0.030108 0.174645 -0.408559
2010-11-10 09:04:57 51°21.344 3°3.531 17.8316 0.030108 0.174654 -0.443383
2010-11-10 09:05:02 51°21.348 3°3.555 17.838 0.030108 0.174648 -0.443383
2010-11-10 09:05:07 51°21.355 3°3.577 17.8275 0.030108 0.174669 -0.408559
2010-11-10 09:05:12 51°21.359 3°3.599 17.8453 0.030108 0.174669 -0.443383
2010-11-10 09:05:17 51°21.366 3°3.62 17.8495 0.030108 0.174669 -0.443383
2010-11-10 09:05:23 51°21.373 3°3.647 17.8344 0.030108 0.174672 -0.443383
2010-11-10 09:05:27 51°21.378 3°3.665 17.8402 0.030108 0.174666 -0.408559
2010-11-10 09:05:32 51°21.383 3°3.687 17.8442 0.030108 0.174663 -0.443383
2010-11-10 09:05:36 51°21.387 3°3.705 17.8376 0.030108 0.174669 -0.443383
2010-11-10 09:05:42 51°21.393 3°3.732 17.8432 0.030108 0.17466 -0.443383
2010-11-10 09:05:48 51°21.399 3°3.759 17.8422 0.030108 0.17466 -0.443383
2010-11-10 09:05:52 51°21.403 3°3.778 17.8398 0.030108 0.174669 -0.443383
2010-11-10 09:05:56 51°21.407 3°3.796 17.8398 0.030108 0.174666 -0.443383
2010-11-10 09:06:02 51°21.413 3°3.824 17.846 0.030108 0.174657 -0.408559
2010-11-10 09:06:08 51°21.419 3°3.851 17.8524 0.030108 0.174663 -0.408559
2010-11-10 09:06:12 51°21.424 3°3.869 17.8519 0.030108 0.174672 -0.408559
2010-11-10 09:06:17 51°21.429 3°3.892 17.837 0.030108 0.174672 -0.408559
2010-11-10 09:06:23 51°21.435 3°3.919 17.8498 0.030108 0.174666 -0.408559
2010-11-10 09:06:28 51°21.44 3°3.943 17.8556 0.030108 0.174675 -0.408559
2010-11-10 09:06:32 51°21.444 3°3.961 17.8571 0.030108 0.174672 -0.443383
2010-11-10 09:06:37 51°21.449 3°3.984 17.8474 0.030108 0.174666 -0.408559
2010-11-10 09:06:42 51°21.453 3°4.008 17.8615 0.030108 0.174666 -0.443383
2010-11-10 09:06:48 51°21.461 3°4.035 17.8552 0.030108 0.174666 -0.443383
2010-11-10 09:06:52 51°21.464 3°4.053 17.846 0.030108 0.174675 -0.408559
2010-11-10 09:06:57 51°21.469 3°4.077 17.8547 0.030108 0.174663 -0.408559
2010-11-10 09:07:02 51°21.474 3°4.099 17.8585 0.030108 0.174681 -0.408559
2010-11-10 09:07:07 51°21.479 3°4.122 17.851 0.030108 0.174672 -0.443383
2010-11-10 09:07:12 51°21.483 3°4.146 17.8574 0.030108 0.174681 -0.443383
2010-11-10 09:07:16 51°21.488 3°4.163 17.8453 0.030108 0.174681 -0.443383
2010-11-10 09:07:22 51°21.493 3°4.191 17.8579 0.030108 0.174687 -0.443383
2010-11-10 09:07:28 51°21.501 3°4.217 17.8554 0.030108 0.174708 -0.408559
2010-11-10 09:07:32 51°21.504 3°4.237 17.8643 0.030108 0.174693 -0.443383
2010-11-10 09:07:36 51°21.508 3°4.255 17.8593 0.030108 0.174702 -0.408559
2010-11-10 09:07:42 51°21.514 3°4.283 17.8596 0.030108 0.174687 -0.408559
2010-11-10 09:07:48 51°21.519 3°4.311 17.8624 0.030108 0.174687 -0.408559
2010-11-10 09:07:52 51°21.524 3°4.33 17.8677 0.030108 0.174684 -0.443383
2010-11-10 09:07:57 51°21.53 3°4.352 17.8657 0.030108 0.174693 -0.408559
2010-11-10 09:08:02 51°21.533 3°4.375 17.8709 0.030108 0.174681 -0.408559
2010-11-10 09:08:08 51°21.54 3°4.403 17.8645 0.030108 0.17469 -0.408559
2010-11-10 09:08:12 51°21.543 3°4.422 17.8739 0.030108 0.174699 -0.408559
2010-11-10 09:08:17 51°21.55 3°4.444 17.8691 0.030108 0.174699 -0.408559
2010-11-10 09:08:23 51°21.555 3°4.472 17.8615 0.030108 0.174693 -0.443383
2010-11-10 09:08:27 51°21.559 3°4.491 17.8551 0.030108 0.17469 -0.408559
2010-11-10 09:08:32 51°21.563 3°4.514 17.8697 0.030108 0.174702 -0.443383
2010-11-10 09:08:36 51°21.567 3°4.533 17.8755 0.030108 0.174702 -0.408559
2010-11-10 09:08:42 51°21.574 3°4.56 17.8675 0.030108 0.174693 -0.408559
2010-11-10 09:08:48 51°21.579 3°4.588 17.8661 0.030108 0.174693 -0.408559
2010-11-10 09:08:52 51°21.583 3°4.606 17.8563 0.030108 0.174699 -0.373735
2010-11-10 09:08:56 51°21.587 3°4.625 17.8622 0.030108 0.174699 -0.443383
2010-11-10 09:09:02 51°21.593 3°4.653 17.8728 0.030108 0.174699 -0.408559
2010-11-10 09:09:08 51°21.6 3°4.68 17.8752 0.030108 0.174699 -0.443383
2010-11-10 09:09:12 51°21.603 3°4.699 17.8777 0.030108 0.174708 -0.408559
2010-11-10 09:09:17 51°21.609 3°4.721 17.8799 0.030108 0.174708 -0.408559
2010-11-10 09:09:22 51°21.613 3°4.744 17.8693 0.030108 0.174705 -0.443383
2010-11-10 09:09:27 51°21.618 3°4.767 17.8729 0.030108 0.174705 -0.408559
2010-11-10 09:09:32 51°21.623 3°4.791 17.8824 0.030108 0.174714 -0.408559
2010-11-10 09:09:37 51°21.629 3°4.814 17.8756 0.030108 0.17472 -0.408559
2010-11-10 09:09:42 51°21.633 3°4.837 17.874 0.030108 0.174726 -0.408559
2010-11-10 09:09:48 51°21.64 3°4.864 17.882 0.030108 0.174726 -0.408559
2010-11-10 09:09:52 51°21.645 3°4.882 17.8794 0.030108 0.174717 -0.443383
2010-11-10 09:09:57 51°21.65 3°4.905 17.8811 0.030108 0.174708 -0.408559
2010-11-10 09:10:03 51°21.657 3°4.934 17.8761 0.030108 0.174711 -0.443383
2010-11-10 09:10:07 51°21.661 3°4.952 17.8781 0.030108 0.174714 -0.443383
2010-11-10 09:10:12 51°21.665 3°4.975 17.8827 0.030108 0.174702 -0.443383
2010-11-10 09:10:16 51°21.669 3°4.994 17.8773 0.030108 0.174702 -0.443383
2010-11-10 09:10:22 51°21.675 3°5.022 17.8859 0.030108 0.174711 -0.408559
2010-11-10 09:10:28 51°21.682 3°5.047 17.8726 0.030108 0.174723 -0.408559
2010-11-10 09:10:32 51°21.685 3°5.067 17.8843 0.030108 0.174705 -0.443383
2010-11-10 09:10:36 51°21.69 3°5.085 17.878 0.030108 0.174726 -0.443383
2010-11-10 09:10:42 51°21.696 3°5.112 17.8778 0.030108 0.174723 -0.443383
2010-11-10 09:10:48 51°21.701 3°5.14 17.8893 0.030108 0.174723 -0.443383
2010-11-10 09:10:52 51°21.707 3°5.157 17.8835 0.030108 0.174726 -0.443383
2010-11-10 09:10:57 51°21.712 3°5.18 17.8785 0.030108 0.174726 -0.408559
2010-11-10 09:11:03 51°21.718 3°5.207 17.8879 0.030108 0.174726 -0.408559
2010-11-10 09:11:08 51°21.722 3°5.23 17.8919 0.030108 0.174714 -0.443383
2010-11-10 09:11:12 51°21.726 3°5.249 17.8837 0.030108 0.174723 -0.408559
2010-11-10 09:11:17 51°21.729 3°5.273 17.8651 0.030108 0.174723 -0.408559
2010-11-10 09:11:22 51°21.732 3°5.296 17.8813 0.030108 0.174708 -0.443383
2010-11-10 09:11:28 51°21.738 3°5.323 17.8907 0.030108 0.174726 -0.443383
2010-11-10 09:11:32 51°21.742 3°5.34 17.8875 0.030108 0.174714 -0.408559
2010-11-10 09:11:36 51°21.744 3°5.36 17.8921 0.030108 0.17472 -0.408559